Wetterdaten: Freitag, 10.11.2017
Datum Zeit Temp. A. Temp. A. max Feuchte A. Luftdruck Regen Wind Richtung Richtung Sonnenschein ET UV Solar Taupunkt Windchill Windböen
10.11.2017 00:00 3,2 °C 3,2 °C 88 % 1025,1 hPa 0,0 mm 5,4 km/h (1 Bft) S-SW 199 ° 0 min 0,000 mm 0,0 UV-I 0 W/m² 1,4 °C 1,9 °C 6,4 km/h (2 Bft)
10.11.2017 00:01 3,2 °C 3,2 °C 88 % 1025,1 hPa 0,0 mm 4,6 km/h (1 Bft) S-SW 199 ° 0 min 0,000 mm 0,0 UV-I 0 W/m² 1,4 °C 2,2 °C 6,4 km/h (2 Bft)
10.11.2017 00:02 3,2 °C 3,2 °C 88 % 1025,1 hPa 0,0 mm 3,8 km/h (1 Bft) S-SW 199 ° 0 min 0,000 mm 0,0 UV-I 0 W/m² 1,4 °C 3,2 °C 6,4 km/h (2 Bft)
10.11.2017 00:03 3,2 °C 3,2 °C 88 % 1025,1 hPa 0,0 mm 4,0 km/h (1 Bft) S-SW 199 ° 0 min 0,000 mm 0,0 UV-I 0 W/m² 1,4 °C 3,2 °C 4,8 km/h (1 Bft)
10.11.2017 00:04 3,2 °C 3,2 °C 88 % 1025,1 hPa 0,0 mm 2,0 km/h (1 Bft) S-SW 199 ° 0 min 0,000 mm 0,0 UV-I 0 W/m² 1,4 °C 3,2 °C 3,2 km/h (1 Bft)
10.11.2017 00:05 3,2 °C 3,2 °C 88 % 1025,1 hPa 0,0 mm 0,0 km/h (0 Bft) S-SW 199 ° 0 min 0,000 mm 0,0 UV-I 0 W/m² 1,4 °C 3,2 °C 0,0 km/h (0 Bft)
10.11.2017 00:06 3,2 °C 3,3 °C 88 % 1025,0 hPa 0,0 mm 0,0 km/h (0 Bft) S-SW 199 ° 0 min 0,000 mm 0,0 UV-I 0 W/m² 1,4 °C 3,2 °C 0,0 km/h (0 Bft)
10.11.2017 00:07 3,2 °C 3,2 °C 88 % 1025,0 hPa 0,0 mm 2,7 km/h (1 Bft) S-SW 199 ° 0 min 0,000 mm 0,0 UV-I 0 W/m² 1,4 °C 3,2 °C 4,8 km/h (1 Bft)
10.11.2017 00:08 3,2 °C 3,2 °C 88 % 1025,0 hPa 0,0 mm 1,6 km/h (1 Bft) S-SW 199 ° 0 min 0,000 mm 0,0 UV-I 0 W/m² 1,4 °C 3,2 °C 3,2 km/h (1 Bft)
10.11.2017 00:09 3,2 °C 3,2 °C 88 % 1025,0 hPa 0,0 mm 2,5 km/h (1 Bft) S-SW 199 ° 0 min 0,000 mm 0,0 UV-I 0 W/m² 1,4 °C 3,2 °C 4,8 km/h (1 Bft)
10.11.2017 00:10 3,2 °C 3,2 °C 89 % 1025,0 hPa 0,0 mm 2,1 km/h (1 Bft) S-SW 199 ° 0 min 0,000 mm 0,0 UV-I 0 W/m² 1,6 °C 3,2 °C 3,2 km/h (1 Bft)
10.11.2017 00:11 3,2 °C 3,2 °C 89 % 1024,9 hPa 0,0 mm 1,5 km/h (1 Bft) S-SW 199 ° 0 min 0,000 mm 0,0 UV-I 0 W/m² 1,6 °C 3,2 °C 3,2 km/h (1 Bft)
10.11.2017 00:12 3,2 °C 3,2 °C 89 % 1024,9 hPa 0,0 mm 1,2 km/h (1 Bft) S-SW 199 ° 0 min 0,000 mm 0,0 UV-I 0 W/m² 1,6 °C 3,2 °C 1,6 km/h (1 Bft)
10.11.2017 00:13 3,2 °C 3,2 °C 89 % 1024,9 hPa 0,0 mm 0,0 km/h (0 Bft) S-SW 199 ° 0 min 0,000 mm 0,0 UV-I 0 W/m² 1,6 °C 3,2 °C 0,0 km/h (0 Bft)
10.11.2017 00:14 3,2 °C 3,2 °C 89 % 1024,9 hPa 0,0 mm 0,0 km/h (0 Bft) S-SW 199 ° 0 min 0,000 mm 0,0 UV-I 0 W/m² 1,6 °C 3,2 °C 0,0 km/h (0 Bft)
10.11.2017 00:15 3,1 °C 3,2 °C 89 % 1024,9 hPa 0,0 mm 0,0 km/h (0 Bft) S-SW 199 ° 0 min 0,000 mm 0,0 UV-I 0 W/m² 1,5 °C 3,1 °C 0,0 km/h (0 Bft)
10.11.2017 00:16 3,1 °C 3,1 °C 89 % 1024,9 hPa 0,0 mm 1,1 km/h (1 Bft) S-SW 199 ° 0 min 0,000 mm 0,0 UV-I 0 W/m² 1,5 °C 3,1 °C 3,2 km/h (1 Bft)
10.11.2017 00:17 3,1 °C 3,2 °C 89 % 1024,9 hPa 0,0 mm 0,5 km/h (0 Bft) S-SW 199 ° 0 min 0,000 mm 0,0 UV-I 0 W/m² 1,5 °C 3,1 °C 3,2 km/h (1 Bft)
10.11.2017 00:18 3,1 °C 3,1 °C 89 % 1024,9 hPa 0,0 mm 2,7 km/h (1 Bft) S-SW 199 ° 0 min 0,000 mm 0,0 UV-I 0 W/m² 1,5 °C 3,1 °C 4,8 km/h (1 Bft)
10.11.2017 00:19 3,1 °C 3,1 °C 89 % 1024,9 hPa 0,0 mm 2,4 km/h (1 Bft) S-SW 199 ° 0 min 0,000 mm 0,0 UV-I 0 W/m² 1,5 °C 3,1 °C 3,2 km/h (1 Bft)
10.11.2017 00:20 3,1 °C 3,1 °C 89 % 1024,9 hPa 0,0 mm 1,7 km/h (1 Bft) S-SW 199 ° 0 min 0,000 mm 0,0 UV-I 0 W/m² 1,5 °C 3,1 °C 3,2 km/h (1 Bft)
10.11.2017 00:21 3,1 °C 3,1 °C 89 % 1024,9 hPa 0,0 mm 0,5 km/h (0 Bft) S-SW 199 ° 0 min 0,000 mm 0,0 UV-I 0 W/m² 1,5 °C 3,1 °C 1,6 km/h (1 Bft)
10.11.2017 00:22 3,1 °C 3,1 °C 89 % 1024,9 hPa 0,0 mm 0,2 km/h (0 Bft) S-SW 199 ° 0 min 0,000 mm 0,0 UV-I 0 W/m² 1,5 °C 3,1 °C 1,6 km/h (1 Bft)
10.11.2017 00:23 3,1 °C 3,1 °C 89 % 1024,9 hPa 0,0 mm 0,0 km/h (0 Bft) S-SW 199 ° 0 min 0,000 mm 0,0 UV-I 0 W/m² 1,5 °C 3,1 °C 0,0 km/h (0 Bft)
10.11.2017 00:24 3,1 °C 3,1 °C 90 % 1024,9 hPa 0,0 mm 0,1 km/h (0 Bft) S-SW 199 ° 0 min 0,000 mm 0,0 UV-I 0 W/m² 1,6 °C 3,1 °C 1,6 km/h (1 Bft)
10.11.2017 00:25 3,1 °C 3,1 °C 90 % 1024,9 hPa 0,0 mm 0,0 km/h (0 Bft) S-SW 199 ° 0 min 0,000 mm 0,0 UV-I 0 W/m² 1,6 °C 3,1 °C 0,0 km/h (0 Bft)
10.11.2017 00:26 3,1 °C 3,1 °C 89 % 1024,9 hPa 0,0 mm 0,4 km/h (0 Bft) S-SW 199 ° 0 min 0,000 mm 0,0 UV-I 0 W/m² 1,5 °C 3,1 °C 1,6 km/h (1 Bft)
10.11.2017 00:27 3,1 °C 3,1 °C 89 % 1024,9 hPa 0,0 mm 3,2 km/h (1 Bft) S-SW 199 ° 0 min 0,000 mm 0,0 UV-I 0 W/m² 1,5 °C 3,1 °C 4,8 km/h (1 Bft)
10.11.2017 00:28 3,1 °C 3,1 °C 89 % 1024,9 hPa 0,0 mm 3,9 km/h (1 Bft) S-SW 199 ° 0 min 0,000 mm 0,0 UV-I 0 W/m² 1,5 °C 3,1 °C 4,8 km/h (1 Bft)
10.11.2017 00:29 3,1 °C 3,1 °C 89 % 1024,9 hPa 0,0 mm 3,4 km/h (1 Bft) S-SW 199 ° 0 min 0,000 mm 0,0 UV-I 0 W/m² 1,5 °C 3,1 °C 4,8 km/h (1 Bft)
10.11.2017 00:30 3,1 °C 3,1 °C 89 % 1024,9 hPa 0,0 mm 1,7 km/h (1 Bft) S-SW 199 ° 0 min 0,000 mm 0,0 UV-I 0 W/m² 1,5 °C 3,1 °C 3,2 km/h (1 Bft)
10.11.2017 00:31 3,1 °C 3,1 °C 89 % 1024,9 hPa 0,0 mm 4,8 km/h (1 Bft) S-SW 199 ° 0 min 0,000 mm 0,0 UV-I 0 W/m² 1,5 °C 2,0 °C 6,4 km/h (2 Bft)
10.11.2017 00:32 3,1 °C 3,1 °C 89 % 1024,9 hPa 0,0 mm 4,6 km/h (1 Bft) S-SW 199 ° 0 min 0,000 mm 0,0 UV-I 0 W/m² 1,5 °C 2,1 °C 6,4 km/h (2 Bft)
10.11.2017 00:33 3,1 °C 3,1 °C 89 % 1024,9 hPa 0,0 mm 3,8 km/h (1 Bft) S-SW 199 ° 0 min 0,000 mm 0,0 UV-I 0 W/m² 1,5 °C 3,1 °C 4,8 km/h (1 Bft)
10.11.2017 00:34 3,1 °C 3,2 °C 89 % 1024,9 hPa 0,0 mm 2,0 km/h (1 Bft) S-SW 199 ° 0 min 0,000 mm 0,0 UV-I 0 W/m² 1,5 °C 3,1 °C 3,2 km/h (1 Bft)
10.11.2017 00:35 3,1 °C 3,1 °C 89 % 1024,8 hPa 0,0 mm 2,5 km/h (1 Bft) S-SW 199 ° 0 min 0,000 mm 0,0 UV-I 0 W/m² 1,5 °C 3,1 °C 3,2 km/h (1 Bft)
10.11.2017 00:36 3,1 °C 3,1 °C 89 % 1024,9 hPa 0,0 mm 3,2 km/h (1 Bft) S-SW 199 ° 0 min 0,000 mm 0,0 UV-I 0 W/m² 1,5 °C 3,1 °C 3,2 km/h (1 Bft)
10.11.2017 00:37 3,1 °C 3,1 °C 89 % 1024,8 hPa 0,0 mm 1,8 km/h (1 Bft) S-SW 199 ° 0 min 0,000 mm 0,0 UV-I 0 W/m² 1,5 °C 3,1 °C 3,2 km/h (1 Bft)
10.11.2017 00:38 3,1 °C 3,1 °C 89 % 1024,8 hPa 0,0 mm 1,3 km/h (1 Bft) S-SW 199 ° 0 min 0,000 mm 0,0 UV-I 0 W/m² 1,5 °C 3,1 °C 3,2 km/h (1 Bft)
10.11.2017 00:39 3,1 °C 3,2 °C 89 % 1024,8 hPa 0,0 mm 2,5 km/h (1 Bft) S-SW 199 ° 0 min 0,000 mm 0,0 UV-I 0 W/m² 1,5 °C 3,1 °C 3,2 km/h (1 Bft)
10.11.2017 00:40 3,1 °C 3,1 °C 89 % 1024,8 hPa 0,0 mm 2,6 km/h (1 Bft) S-SW 199 ° 0 min 0,000 mm 0,0 UV-I 0 W/m² 1,5 °C 3,1 °C 3,2 km/h (1 Bft)
10.11.2017 00:41 3,1 °C 3,1 °C 89 % 1024,8 hPa 0,0 mm 2,9 km/h (1 Bft) S-SW 199 ° 0 min 0,000 mm 0,0 UV-I 0 W/m² 1,5 °C 3,1 °C 4,8 km/h (1 Bft)
10.11.2017 00:42 3,1 °C 3,1 °C 89 % 1024,9 hPa 0,0 mm 2,4 km/h (1 Bft) S-SW 199 ° 0 min 0,000 mm 0,0 UV-I 0 W/m² 1,5 °C 3,1 °C 3,2 km/h (1 Bft)
10.11.2017 00:43 3,1 °C 3,1 °C 89 % 1024,9 hPa 0,0 mm 2,2 km/h (1 Bft) S-SW 199 ° 0 min 0,000 mm 0,0 UV-I 0 W/m² 1,5 °C 3,1 °C 3,2 km/h (1 Bft)
10.11.2017 00:44 3,1 °C 3,1 °C 89 % 1024,9 hPa 0,0 mm 1,9 km/h (1 Bft) S-SW 199 ° 0 min 0,000 mm 0,0 UV-I 0 W/m² 1,5 °C 3,1 °C 3,2 km/h (1 Bft)
10.11.2017 00:45 3,1 °C 3,1 °C 89 % 1024,9 hPa 0,0 mm 1,5 km/h (1 Bft) S-SW 199 ° 0 min 0,000 mm 0,0 UV-I 0 W/m² 1,5 °C 3,1 °C 3,2 km/h (1 Bft)
10.11.2017 00:46 3,1 °C 3,1 °C 90 % 1024,9 hPa 0,0 mm 0,4 km/h (0 Bft) S-SW 199 ° 0 min 0,000 mm 0,0 UV-I 0 W/m² 1,6 °C 3,1 °C 1,6 km/h (1 Bft)
10.11.2017 00:47 3,0 °C 3,1 °C 90 % 1024,9 hPa 0,0 mm 0,6 km/h (0 Bft) S-SW 199 ° 0 min 0,000 mm 0,0 UV-I 0 W/m² 1,5 °C 3,0 °C 1,6 km/h (1 Bft)
10.11.2017 00:48 3,0 °C 3,1 °C 90 % 1024,9 hPa 0,0 mm 1,0 km/h (0 Bft) S-SW 199 ° 0 min 0,000 mm 0,0 UV-I 0 W/m² 1,5 °C 3,0 °C 1,6 km/h (1 Bft)
10.11.2017 00:49 3,0 °C 3,1 °C 90 % 1024,9 hPa 0,0 mm 0,9 km/h (0 Bft) S-SW 199 ° 0 min 0,000 mm 0,0 UV-I 0 W/m² 1,5 °C 3,0 °C 1,6 km/h (1 Bft)
10.11.2017 00:50 3,0 °C 3,0 °C 89 % 1024,9 hPa 0,0 mm 0,0 km/h (0 Bft) S-SW 199 ° 0 min 0,000 mm 0,0 UV-I 0 W/m² 1,4 °C 3,0 °C 0,0 km/h (0 Bft)
10.11.2017 00:51 3,0 °C 3,0 °C 90 % 1024,9 hPa 0,0 mm 0,9 km/h (0 Bft) S-SW 199 ° 0 min 0,000 mm 0,0 UV-I 0 W/m² 1,5 °C 3,0 °C 3,2 km/h (1 Bft)
10.11.2017 00:52 3,0 °C 3,1 °C 90 % 1024,8 hPa 0,0 mm 2,3 km/h (1 Bft) S-SW 199 ° 0 min 0,000 mm 0,0 UV-I 0 W/m² 1,5 °C 3,0 °C 3,2 km/h (1 Bft)
10.11.2017 00:53 3,0 °C 3,0 °C 90 % 1024,8 hPa 0,0 mm 2,4 km/h (1 Bft) S-SW 199 ° 0 min 0,000 mm 0,0 UV-I 0 W/m² 1,5 °C 3,0 °C 3,2 km/h (1 Bft)
10.11.2017 00:54 3,0 °C 3,0 °C 90 % 1024,9 hPa 0,0 mm 2,3 km/h (1 Bft) S-SW 199 ° 0 min 0,000 mm 0,0 UV-I 0 W/m² 1,5 °C 3,0 °C 3,2 km/h (1 Bft)
10.11.2017 00:55 3,0 °C 3,0 °C 90 % 1024,9 hPa 0,0 mm 2,1 km/h (1 Bft) S-SW 199 ° 0 min 0,000 mm 0,0 UV-I 0 W/m² 1,5 °C 3,0 °C 3,2 km/h (1 Bft)
10.11.2017 00:56 3,0 °C 3,1 °C 90 % 1024,8 hPa 0,0 mm 4,0 km/h (1 Bft) S-SW 199 ° 0 min 0,000 mm 0,0 UV-I 0 W/m² 1,5 °C 3,0 °C 4,8 km/h (1 Bft)
10.11.2017 00:57 3,0 °C 3,0 °C 90 % 1024,8 hPa 0,0 mm 4,0 km/h (1 Bft) S-SW 199 ° 0 min 0,000 mm 0,0 UV-I 0 W/m² 1,5 °C 3,0 °C 4,8 km/h (1 Bft)
10.11.2017 00:58 3,0 °C 3,0 °C 90 % 1024,8 hPa 0,0 mm 1,8 km/h (1 Bft) S-SW 199 ° 0 min 0,000 mm 0,0 UV-I 0 W/m² 1,5 °C 3,0 °C 3,2 km/h (1 Bft)
10.11.2017 00:59 3,0 °C 3,0 °C 90 % 1024,8 hPa 0,0 mm 1,9 km/h (1 Bft) S-SW 199 ° 0 min 0,000 mm 0,0 UV-I 0 W/m² 1,5 °C 3,0 °C 3,2 km/h (1 Bft)
10.11.2017 01:00 3,0 °C 3,0 °C 90 % 1024,8 hPa 0,0 mm 1,2 km/h (1 Bft) S-SW 199 ° 0 min 0,000 mm 0,0 UV-I 0 W/m² 1,5 °C 3,0 °C 1,6 km/h (1 Bft)
10.11.2017 01:01 3,0 °C 3,0 °C 90 % 1024,8 hPa 0,0 mm 0,5 km/h (0 Bft) S-SW 199 ° 0 min 0,000 mm 0,0 UV-I 0 W/m² 1,5 °C 3,0 °C 1,6 km/h (1 Bft)
10.11.2017 01:02 2,9 °C 3,0 °C 90 % 1024,9 hPa 0,0 mm 0,1 km/h (0 Bft) S-SW 199 ° 0 min 0,000 mm 0,0 UV-I 0 W/m² 1,4 °C 2,9 °C 1,6 km/h (1 Bft)
10.11.2017 01:03 2,9 °C 3,0 °C 90 % 1024,8 hPa 0,0 mm 0,0 km/h (0 Bft) S-SW 199 ° 0 min 0,000 mm 0,0 UV-I 0 W/m² 1,4 °C 2,9 °C 0,0 km/h (0 Bft)
10.11.2017 01:04 2,9 °C 3,0 °C 90 % 1024,7 hPa 0,0 mm 0,0 km/h (0 Bft) S-SW 199 ° 0 min 0,000 mm 0,0 UV-I 0 W/m² 1,4 °C 2,9 °C 0,0 km/h (0 Bft)
10.11.2017 01:05 2,9 °C 2,9 °C 90 % 1024,8 hPa 0,0 mm 0,0 km/h (0 Bft) S-SW 199 ° 0 min 0,000 mm 0,0 UV-I 0 W/m² 1,4 °C 2,9 °C 0,0 km/h (0 Bft)
10.11.2017 01:06 2,9 °C 2,9 °C 90 % 1024,7 hPa 0,0 mm 0,0 km/h (0 Bft) S-SW 199 ° 0 min 0,000 mm 0,0 UV-I 0 W/m² 1,4 °C 2,9 °C 0,0 km/h (0 Bft)
10.11.2017 01:07 2,9 °C 2,9 °C 90 % 1024,7 hPa 0,0 mm 0,0 km/h (0 Bft) S-SW 199 ° 0 min 0,000 mm 0,0 UV-I 0 W/m² 1,4 °C 2,9 °C 0,0 km/h (0 Bft)
10.11.2017 01:08 2,9 °C 2,9 °C 90 % 1024,7 hPa 0,0 mm 0,0 km/h (0 Bft) S-SW 199 ° 0 min 0,000 mm 0,0 UV-I 0 W/m² 1,4 °C 2,9 °C 0,0 km/h (0 Bft)
10.11.2017 01:09 2,9 °C 2,9 °C 90 % 1024,7 hPa 0,0 mm 0,0 km/h (0 Bft) S-SW 199 ° 0 min 0,000 mm 0,0 UV-I 0 W/m² 1,4 °C 2,9 °C 0,0 km/h (0 Bft)
10.11.2017 01:10 2,9 °C 2,9 °C 91 % 1024,7 hPa 0,0 mm 0,0 km/h (0 Bft) S-SW 199 ° 0 min 0,000 mm 0,0 UV-I 0 W/m² 1,6 °C 2,9 °C 0,0 km/h (0 Bft)
10.11.2017 01:11 2,9 °C 2,9 °C 91 % 1024,7 hPa 0,0 mm 0,0 km/h (0 Bft) S-SW 199 ° 0 min 0,000 mm 0,0 UV-I 0 W/m² 1,6 °C 2,9 °C 0,0 km/h (0 Bft)
10.11.2017 01:12 2,9 °C 2,9 °C 90 % 1024,7 hPa 0,0 mm 0,0 km/h (0 Bft) S-SW 199 ° 0 min 0,000 mm 0,0 UV-I 0 W/m² 1,4 °C 2,9 °C 0,0 km/h (0 Bft)
10.11.2017 01:13 2,9 °C 2,9 °C 90 % 1024,7 hPa 0,0 mm 0,5 km/h (0 Bft) S-SW 199 ° 0 min 0,000 mm 0,0 UV-I 0 W/m² 1,4 °C 2,9 °C 4,8 km/h (1 Bft)
10.11.2017 01:14 2,9 °C 2,9 °C 90 % 1024,7 hPa 0,0 mm 7,4 km/h (2 Bft) S-SW 198 ° 0 min 0,000 mm 0,0 UV-I 0 W/m² 1,4 °C 0,8 °C 9,7 km/h (2 Bft)
10.11.2017 01:15 2,9 °C 2,9 °C 90 % 1024,7 hPa 0,0 mm 3,6 km/h (1 Bft) S-SW 198 ° 0 min 0,000 mm 0,0 UV-I 0 W/m² 1,4 °C 2,9 °C 4,8 km/h (1 Bft)
10.11.2017 01:16 2,9 °C 2,9 °C 89 % 1024,7 hPa 0,0 mm 2,7 km/h (1 Bft) S-SW 198 ° 0 min 0,000 mm 0,0 UV-I 0 W/m² 1,3 °C 2,9 °C 4,8 km/h (1 Bft)
10.11.2017 01:17 2,9 °C 2,9 °C 89 % 1024,7 hPa 0,0 mm 1,9 km/h (1 Bft) S-SW 198 ° 0 min 0,000 mm 0,0 UV-I 0 W/m² 1,3 °C 2,9 °C 3,2 km/h (1 Bft)
10.11.2017 01:18 3,0 °C 3,0 °C 89 % 1024,7 hPa 0,0 mm 0,9 km/h (0 Bft) S-SW 198 ° 0 min 0,000 mm 0,0 UV-I 0 W/m² 1,4 °C 3,0 °C 4,8 km/h (1 Bft)
10.11.2017 01:19 3,0 °C 3,0 °C 89 % 1024,7 hPa 0,0 mm 3,0 km/h (1 Bft) S-SW 199 ° 0 min 0,000 mm 0,0 UV-I 0 W/m² 1,4 °C 3,0 °C 3,2 km/h (1 Bft)
10.11.2017 01:20 3,1 °C 3,1 °C 88 % 1024,7 hPa 0,0 mm 3,0 km/h (1 Bft) S-SW 198 ° 0 min 0,000 mm 0,0 UV-I 0 W/m² 1,3 °C 3,1 °C 6,4 km/h (2 Bft)
10.11.2017 01:21 3,1 °C 3,1 °C 88 % 1024,7 hPa 0,0 mm 0,9 km/h (0 Bft) S-SW 198 ° 0 min 0,000 mm 0,0 UV-I 0 W/m² 1,3 °C 3,1 °C 1,6 km/h (1 Bft)
10.11.2017 01:22 3,1 °C 3,1 °C 89 % 1024,8 hPa 0,0 mm 0,0 km/h (0 Bft) S-SW 198 ° 0 min 0,000 mm 0,0 UV-I 0 W/m² 1,5 °C 3,1 °C 0,0 km/h (0 Bft)
10.11.2017 01:23 3,1 °C 3,1 °C 89 % 1024,8 hPa 0,0 mm 0,0 km/h (0 Bft) S-SW 198 ° 0 min 0,000 mm 0,0 UV-I 0 W/m² 1,5 °C 3,1 °C 0,0 km/h (0 Bft)
10.11.2017 01:24 3,1 °C 3,1 °C 89 % 1024,8 hPa 0,0 mm 0,0 km/h (0 Bft) S-SW 198 ° 0 min 0,000 mm 0,0 UV-I 0 W/m² 1,5 °C 3,1 °C 0,0 km/h (0 Bft)
10.11.2017 01:25 3,1 °C 3,1 °C 89 % 1024,8 hPa 0,0 mm 0,0 km/h (0 Bft) S-SW 198 ° 0 min 0,000 mm 0,0 UV-I 0 W/m² 1,5 °C 3,1 °C 0,0 km/h (0 Bft)
10.11.2017 01:26 3,0 °C 3,1 °C 90 % 1024,7 hPa 0,0 mm 0,0 km/h (0 Bft) S-SW 198 ° 0 min 0,000 mm 0,0 UV-I 0 W/m² 1,5 °C 3,0 °C 0,0 km/h (0 Bft)
10.11.2017 01:27 3,0 °C 3,1 °C 90 % 1024,7 hPa 0,0 mm 0,0 km/h (0 Bft) S-SW 198 ° 0 min 0,000 mm 0,0 UV-I 0 W/m² 1,5 °C 3,0 °C 0,0 km/h (0 Bft)
10.11.2017 01:28 3,0 °C 3,0 °C 90 % 1024,7 hPa 0,0 mm 0,0 km/h (0 Bft) S-SW 198 ° 0 min 0,000 mm 0,0 UV-I 0 W/m² 1,5 °C 3,0 °C 0,0 km/h (0 Bft)
10.11.2017 01:29 3,0 °C 3,0 °C 90 % 1024,7 hPa 0,0 mm 0,0 km/h (0 Bft) S-SW 198 ° 0 min 0,000 mm 0,0 UV-I 0 W/m² 1,5 °C 3,0 °C 0,0 km/h (0 Bft)
10.11.2017 01:30 3,0 °C 3,0 °C 90 % 1024,8 hPa 0,0 mm 0,5 km/h (0 Bft) S-SW 198 ° 0 min 0,000 mm 0,0 UV-I 0 W/m² 1,5 °C 3,0 °C 1,6 km/h (1 Bft)
10.11.2017 01:31 3,0 °C 3,0 °C 90 % 1024,8 hPa 0,0 mm 0,7 km/h (0 Bft) S-SW 198 ° 0 min 0,000 mm 0,0 UV-I 0 W/m² 1,5 °C 3,0 °C 1,6 km/h (1 Bft)
10.11.2017 01:32 3,0 °C 3,0 °C 90 % 1024,8 hPa 0,0 mm 0,3 km/h (0 Bft) S-SW 198 ° 0 min 0,000 mm 0,0 UV-I 0 W/m² 1,5 °C 3,0 °C 1,6 km/h (1 Bft)
10.11.2017 01:33 3,0 °C 3,0 °C 90 % 1024,8 hPa 0,0 mm 0,0 km/h (0 Bft) S-SW 198 ° 0 min 0,000 mm 0,0 UV-I 0 W/m² 1,5 °C 3,0 °C 0,0 km/h (0 Bft)
10.11.2017 01:34 2,9 °C 3,0 °C 90 % 1024,8 hPa 0,0 mm 0,0 km/h (0 Bft) S-SW 198 ° 0 min 0,000 mm 0,0 UV-I 0 W/m² 1,4 °C 2,9 °C 0,0 km/h (0 Bft)
10.11.2017 01:35 2,9 °C 2,9 °C 90 % 1024,7 hPa 0,0 mm 0,0 km/h (0 Bft) S-SW 198 ° 0 min 0,000 mm 0,0 UV-I 0 W/m² 1,4 °C 2,9 °C 0,0 km/h (0 Bft)
10.11.2017 01:36 2,9 °C 2,9 °C 90 % 1024,8 hPa 0,0 mm 0,0 km/h (0 Bft) S-SW 198 ° 0 min 0,000 mm 0,0 UV-I 0 W/m² 1,4 °C 2,9 °C 0,0 km/h (0 Bft)
10.11.2017 01:37 2,9 °C 2,9 °C 90 % 1024,7 hPa 0,0 mm 0,8 km/h (0 Bft) S-SW 198 ° 0 min 0,000 mm 0,0 UV-I 0 W/m² 1,4 °C 2,9 °C 3,2 km/h (1 Bft)
10.11.2017 01:38 2,9 °C 2,9 °C 90 % 1024,7 hPa 0,0 mm 1,3 km/h (1 Bft) S-SW 198 ° 0 min 0,000 mm 0,0 UV-I 0 W/m² 1,4 °C 2,9 °C 3,2 km/h (1 Bft)
10.11.2017 01:39 2,9 °C 2,9 °C 90 % 1024,7 hPa 0,0 mm 2,1 km/h (1 Bft) S-SW 198 ° 0 min 0,000 mm 0,0 UV-I 0 W/m² 1,4 °C 2,9 °C 3,2 km/h (1 Bft)
10.11.2017 01:40 2,9 °C 2,9 °C 90 % 1024,6 hPa 0,0 mm 2,9 km/h (1 Bft) S-SW 198 ° 0 min 0,000 mm 0,0 UV-I 0 W/m² 1,4 °C 2,9 °C 4,8 km/h (1 Bft)
10.11.2017 01:41 2,9 °C 2,9 °C 90 % 1024,7 hPa 0,0 mm 3,3 km/h (1 Bft) S-SW 198 ° 0 min 0,000 mm 0,0 UV-I 0 W/m² 1,4 °C 2,9 °C 4,8 km/h (1 Bft)
10.11.2017 01:42 2,9 °C 2,9 °C 90 % 1024,7 hPa 0,0 mm 2,8 km/h (1 Bft) S-SW 198 ° 0 min 0,000 mm 0,0 UV-I 0 W/m² 1,4 °C 2,9 °C 4,8 km/h (1 Bft)
10.11.2017 01:43 2,9 °C 2,9 °C 90 % 1024,6 hPa 0,0 mm 1,3 km/h (1 Bft) S-SW 198 ° 0 min 0,000 mm 0,0 UV-I 0 W/m² 1,4 °C 2,9 °C 3,2 km/h (1 Bft)
10.11.2017 01:44 2,9 °C 2,9 °C 90 % 1024,7 hPa 0,0 mm 0,4 km/h (0 Bft) S-SW 198 ° 0 min 0,000 mm 0,0 UV-I 0 W/m² 1,4 °C 2,9 °C 3,2 km/h (1 Bft)
10.11.2017 01:45 2,9 °C 2,9 °C 90 % 1024,7 hPa 0,0 mm 1,1 km/h (1 Bft) S-SW 198 ° 0 min 0,000 mm 0,0 UV-I 0 W/m² 1,4 °C 2,9 °C 3,2 km/h (1 Bft)
10.11.2017 01:46 2,9 °C 2,9 °C 90 % 1024,7 hPa 0,0 mm 1,9 km/h (1 Bft) S-SW 198 ° 0 min 0,000 mm 0,0 UV-I 0 W/m² 1,4 °C 2,9 °C 4,8 km/h (1 Bft)
10.11.2017 01:47 2,8 °C 2,9 °C 90 % 1024,7 hPa 0,0 mm 4,1 km/h (1 Bft) S-SW 198 ° 0 min 0,000 mm 0,0 UV-I 0 W/m² 1,3 °C 2,8 °C 6,4 km/h (2 Bft)
10.11.2017 01:48 2,9 °C 2,9 °C 90 % 1024,7 hPa 0,0 mm 3,9 km/h (1 Bft) S-SW 198 ° 0 min 0,000 mm 0,0 UV-I 0 W/m² 1,4 °C 2,9 °C 6,4 km/h (2 Bft)
10.11.2017 01:49 2,9 °C 2,9 °C 90 % 1024,7 hPa 0,0 mm 2,9 km/h (1 Bft) S-SW 198 ° 0 min 0,000 mm 0,0 UV-I 0 W/m² 1,4 °C 2,9 °C 3,2 km/h (1 Bft)
10.11.2017 01:50 2,8 °C 2,9 °C 90 % 1024,7 hPa 0,0 mm 3,4 km/h (1 Bft) S-SW 198 ° 0 min 0,000 mm 0,0 UV-I 0 W/m² 1,3 °C 2,8 °C 4,8 km/h (1 Bft)
10.11.2017 01:51 2,8 °C 2,9 °C 90 % 1024,7 hPa 0,0 mm 2,8 km/h (1 Bft) S-SW 198 ° 0 min 0,000 mm 0,0 UV-I 0 W/m² 1,3 °C 2,8 °C 3,2 km/h (1 Bft)
10.11.2017 01:52 2,8 °C 2,9 °C 90 % 1024,7 hPa 0,0 mm 1,5 km/h (1 Bft) S-SW 198 ° 0 min 0,000 mm 0,0 UV-I 0 W/m² 1,3 °C 2,8 °C 4,8 km/h (1 Bft)
10.11.2017 01:53 2,9 °C 2,9 °C 90 % 1024,7 hPa 0,0 mm 1,6 km/h (1 Bft) S-SW 198 ° 0 min 0,000 mm 0,0 UV-I 0 W/m² 1,4 °C 2,9 °C 3,2 km/h (1 Bft)
10.11.2017 01:54 2,9 °C 2,9 °C 90 % 1024,8 hPa 0,0 mm 1,8 km/h (1 Bft) S-SW 198 ° 0 min 0,000 mm 0,0 UV-I 0 W/m² 1,4 °C 2,9 °C 3,2 km/h (1 Bft)
10.11.2017 01:55 2,8 °C 2,9 °C 90 % 1024,8 hPa 0,0 mm 3,3 km/h (1 Bft) S-SW 198 ° 0 min 0,000 mm 0,0 UV-I 0 W/m² 1,3 °C 2,8 °C 4,8 km/h (1 Bft)
10.11.2017 01:56 2,8 °C 2,9 °C 90 % 1024,8 hPa 0,0 mm 2,1 km/h (1 Bft) S-SW 198 ° 0 min 0,000 mm 0,0 UV-I 0 W/m² 1,3 °C 2,8 °C 4,8 km/h (1 Bft)
10.11.2017 01:57 2,9 °C 2,9 °C 90 % 1024,8 hPa 0,0 mm 3,0 km/h (1 Bft) S-SW 198 ° 0 min 0,000 mm 0,0 UV-I 0 W/m² 1,4 °C 2,9 °C 6,4 km/h (2 Bft)
10.11.2017 01:58 2,9 °C 2,9 °C 90 % 1024,7 hPa 0,0 mm 2,2 km/h (1 Bft) S-SW 198 ° 0 min 0,000 mm 0,0 UV-I 0 W/m² 1,4 °C 2,9 °C 3,2 km/h (1 Bft)
10.11.2017 01:59 2,9 °C 2,9 °C 90 % 1024,7 hPa 0,0 mm 1,9 km/h (1 Bft) S-SW 198 ° 0 min 0,000 mm 0,0 UV-I 0 W/m² 1,4 °C 2,9 °C 3,2 km/h (1 Bft)
10.11.2017 02:00 2,9 °C 2,9 °C 90 % 1024,7 hPa 0,0 mm 1,0 km/h (0 Bft) S-SW 198 ° 0 min 0,000 mm 0,0 UV-I 0 W/m² 1,4 °C 2,9 °C 3,2 km/h (1 Bft)
10.11.2017 02:01 2,9 °C 2,9 °C 90 % 1024,7 hPa 0,0 mm 1,0 km/h (0 Bft) S-SW 198 ° 0 min 0,000 mm 0,0 UV-I 0 W/m² 1,4 °C 2,9 °C 3,2 km/h (1 Bft)
10.11.2017 02:02 2,9 °C 2,9 °C 90 % 1024,7 hPa 0,0 mm 0,6 km/h (0 Bft) S-SW 198 ° 0 min 0,000 mm 0,0 UV-I 0 W/m² 1,4 °C 2,9 °C 3,2 km/h (1 Bft)
10.11.2017 02:03 2,9 °C 2,9 °C 89 % 1024,6 hPa 0,0 mm 0,0 km/h (0 Bft) S-SW 198 ° 0 min 0,000 mm 0,0 UV-I 0 W/m² 1,3 °C 2,9 °C 0,0 km/h (0 Bft)
10.11.2017 02:04 2,9 °C 2,9 °C 89 % 1024,6 hPa 0,0 mm 1,7 km/h (1 Bft) S-SW 198 ° 0 min 0,000 mm 0,0 UV-I 0 W/m² 1,3 °C 2,9 °C 3,2 km/h (1 Bft)
10.11.2017 02:05 2,9 °C 2,9 °C 89 % 1024,6 hPa 0,0 mm 2,2 km/h (1 Bft) S-SW 198 ° 0 min 0,000 mm 0,0 UV-I 0 W/m² 1,3 °C 2,9 °C 3,2 km/h (1 Bft)
10.11.2017 02:06 2,9 °C 2,9 °C 89 % 1024,6 hPa 0,0 mm 2,9 km/h (1 Bft) S-SW 199 ° 0 min 0,000 mm 0,0 UV-I 0 W/m² 1,3 °C 2,9 °C 4,8 km/h (1 Bft)
10.11.2017 02:07 2,9 °C 2,9 °C 89 % 1024,6 hPa 0,0 mm 3,6 km/h (1 Bft) S-SW 198 ° 0 min 0,000 mm 0,0 UV-I 0 W/m² 1,3 °C 2,9 °C 6,4 km/h (2 Bft)
10.11.2017 02:08 2,9 °C 2,9 °C 89 % 1024,6 hPa 0,0 mm 3,8 km/h (1 Bft) S-SW 198 ° 0 min 0,000 mm 0,0 UV-I 0 W/m² 1,3 °C 2,9 °C 4,8 km/h (1 Bft)
10.11.2017 02:09 2,9 °C 2,9 °C 89 % 1024,6 hPa 0,0 mm 3,8 km/h (1 Bft) S-SW 198 ° 0 min 0,000 mm 0,0 UV-I 0 W/m² 1,3 °C 2,9 °C 4,8 km/h (1 Bft)
10.11.2017 02:10 2,9 °C 2,9 °C 89 % 1024,6 hPa 0,0 mm 4,6 km/h (1 Bft) S-SW 198 ° 0 min 0,000 mm 0,0 UV-I 0 W/m² 1,3 °C 1,9 °C 6,4 km/h (2 Bft)
10.11.2017 02:11 2,9 °C 2,9 °C 89 % 1024,6 hPa 0,0 mm 3,7 km/h (1 Bft) S-SW 198 ° 0 min 0,000 mm 0,0 UV-I 0 W/m² 1,3 °C 2,9 °C 6,4 km/h (2 Bft)
10.11.2017 02:12 2,9 °C 2,9 °C 89 % 1024,6 hPa 0,0 mm 2,7 km/h (1 Bft) S-SW 198 ° 0 min 0,000 mm 0,0 UV-I 0 W/m² 1,3 °C 2,9 °C 4,8 km/h (1 Bft)
10.11.2017 02:13 2,9 °C 2,9 °C 89 % 1024,6 hPa 0,0 mm 5,1 km/h (1 Bft) S-SW 198 ° 0 min 0,000 mm 0,0 UV-I 0 W/m² 1,3 °C 1,7 °C 6,4 km/h (2 Bft)
10.11.2017 02:14 2,9 °C 2,9 °C 89 % 1024,6 hPa 0,0 mm 3,3 km/h (1 Bft) S-SW 198 ° 0 min 0,000 mm 0,0 UV-I 0 W/m² 1,3 °C 2,9 °C 4,8 km/h (1 Bft)
10.11.2017 02:15 2,9 °C 2,9 °C 89 % 1024,6 hPa 0,0 mm 1,5 km/h (1 Bft) S-SW 198 ° 0 min 0,000 mm 0,0 UV-I 0 W/m² 1,3 °C 2,9 °C 3,2 km/h (1 Bft)
10.11.2017 02:16 2,9 °C 2,9 °C 88 % 1024,7 hPa 0,0 mm 2,3 km/h (1 Bft) S-SW 198 ° 0 min 0,000 mm 0,0 UV-I 0 W/m² 1,1 °C 2,9 °C 3,2 km/h (1 Bft)
10.11.2017 02:17 2,9 °C 2,9 °C 88 % 1024,7 hPa 0,0 mm 3,4 km/h (1 Bft) S-SW 198 ° 0 min 0,000 mm 0,0 UV-I 0 W/m² 1,1 °C 2,9 °C 4,8 km/h (1 Bft)
10.11.2017 02:18 2,9 °C 2,9 °C 87 % 1024,7 hPa 0,0 mm 2,7 km/h (1 Bft) S-SW 198 ° 0 min 0,000 mm 0,0 UV-I 0 W/m² 1,0 °C 2,9 °C 3,2 km/h (1 Bft)
10.11.2017 02:19 2,9 °C 2,9 °C 87 % 1024,7 hPa 0,0 mm 1,7 km/h (1 Bft) S-SW 198 ° 0 min 0,000 mm 0,0 UV-I 0 W/m² 1,0 °C 2,9 °C 3,2 km/h (1 Bft)
10.11.2017 02:20 2,9 °C 2,9 °C 87 % 1024,7 hPa 0,0 mm 2,6 km/h (1 Bft) S-SW 198 ° 0 min 0,000 mm 0,0 UV-I 0 W/m² 1,0 °C 2,9 °C 4,8 km/h (1 Bft)
10.11.2017 02:21 2,9 °C 2,9 °C 88 % 1024,7 hPa 0,0 mm 1,7 km/h (1 Bft) S-SW 198 ° 0 min 0,000 mm 0,0 UV-I 0 W/m² 1,1 °C 2,9 °C 3,2 km/h (1 Bft)
10.11.2017 02:22 2,9 °C 2,9 °C 88 % 1024,8 hPa 0,0 mm 1,8 km/h (1 Bft) S-SW 198 ° 0 min 0,000 mm 0,0 UV-I 0 W/m² 1,1 °C 2,9 °C 3,2 km/h (1 Bft)
10.11.2017 02:23 3,0 °C 3,0 °C 88 % 1024,8 hPa 0,0 mm 0,3 km/h (0 Bft) S-SW 198 ° 0 min 0,000 mm 0,0 UV-I 0 W/m² 1,2 °C 3,0 °C 3,2 km/h (1 Bft)
10.11.2017 02:24 3,0 °C 3,0 °C 88 % 1024,8 hPa 0,0 mm 2,7 km/h (1 Bft) S-SW 198 ° 0 min 0,000 mm 0,0 UV-I 0 W/m² 1,2 °C 3,0 °C 4,8 km/h (1 Bft)
10.11.2017 02:25 3,0 °C 3,0 °C 88 % 1024,9 hPa 0,0 mm 0,8 km/h (0 Bft) S-SW 198 ° 0 min 0,000 mm 0,0 UV-I 0 W/m² 1,2 °C 3,0 °C 3,2 km/h (1 Bft)
10.11.2017 02:26 3,0 °C 3,0 °C 88 % 1024,9 hPa 0,0 mm 1,6 km/h (1 Bft) S-SW 198 ° 0 min 0,000 mm 0,0 UV-I 0 W/m² 1,2 °C 3,0 °C 3,2 km/h (1 Bft)
10.11.2017 02:27 3,0 °C 3,0 °C 88 % 1024,9 hPa 0,0 mm 1,5 km/h (1 Bft) S-SW 198 ° 0 min 0,000 mm 0,0 UV-I 0 W/m² 1,2 °C 3,0 °C 3,2 km/h (1 Bft)
10.11.2017 02:28 3,0 °C 3,1 °C 88 % 1024,9 hPa 0,0 mm 0,6 km/h (0 Bft) S-SW 198 ° 0 min 0,000 mm 0,0 UV-I 0 W/m² 1,2 °C 3,0 °C 1,6 km/h (1 Bft)
10.11.2017 02:29 3,1 °C 3,1 °C 88 % 1025,0 hPa 0,0 mm 0,1 km/h (0 Bft) S-SW 198 ° 0 min 0,000 mm 0,0 UV-I 0 W/m² 1,3 °C 3,1 °C 1,6 km/h (1 Bft)
10.11.2017 02:30 3,1 °C 3,1 °C 88 % 1024,9 hPa 0,0 mm 0,4 km/h (0 Bft) S-SW 198 ° 0 min 0,000 mm 0,0 UV-I 0 W/m² 1,3 °C 3,1 °C 1,6 km/h (1 Bft)
10.11.2017 02:31 3,1 °C 3,1 °C 88 % 1025,0 hPa 0,0 mm 0,1 km/h (0 Bft) S-SW 198 ° 0 min 0,000 mm 0,0 UV-I 0 W/m² 1,3 °C 3,1 °C 1,6 km/h (1 Bft)
10.11.2017 02:32 3,1 °C 3,1 °C 88 % 1025,0 hPa 0,0 mm 0,0 km/h (0 Bft) S-SW 198 ° 0 min 0,000 mm 0,0 UV-I 0 W/m² 1,3 °C 3,1 °C 0,0 km/h (0 Bft)
10.11.2017 02:33 3,1 °C 3,1 °C 88 % 1024,9 hPa 0,0 mm 0,0 km/h (0 Bft) S-SW 198 ° 0 min 0,000 mm 0,0 UV-I 0 W/m² 1,3 °C 3,1 °C 0,0 km/h (0 Bft)
10.11.2017 02:34 3,1 °C 3,1 °C 88 % 1025,0 hPa 0,0 mm 0,0 km/h (0 Bft) S-SW 198 ° 0 min 0,000 mm 0,0 UV-I 0 W/m² 1,3 °C 3,1 °C 0,0 km/h (0 Bft)
10.11.2017 02:35 3,1 °C 3,1 °C 88 % 1024,9 hPa 0,0 mm 0,7 km/h (0 Bft) S-SW 198 ° 0 min 0,000 mm 0,0 UV-I 0 W/m² 1,3 °C 3,1 °C 1,6 km/h (1 Bft)
10.11.2017 02:36 3,1 °C 3,1 °C 88 % 1024,9 hPa 0,0 mm 0,0 km/h (0 Bft) S-SW 198 ° 0 min 0,000 mm 0,0 UV-I 0 W/m² 1,3 °C 3,1 °C 0,0 km/h (0 Bft)
10.11.2017 02:37 3,1 °C 3,1 °C 88 % 1024,9 hPa 0,0 mm 0,0 km/h (0 Bft) S-SW 198 ° 0 min 0,000 mm 0,0 UV-I 0 W/m² 1,3 °C 3,1 °C 0,0 km/h (0 Bft)
10.11.2017 02:38 3,1 °C 3,1 °C 88 % 1024,9 hPa 0,0 mm 0,0 km/h (0 Bft) S-SW 198 ° 0 min 0,000 mm 0,0 UV-I 0 W/m² 1,3 °C 3,1 °C 0,0 km/h (0 Bft)
10.11.2017 02:39 3,1 °C 3,1 °C 88 % 1024,8 hPa 0,0 mm 0,1 km/h (0 Bft) S-SW 198 ° 0 min 0,000 mm 0,0 UV-I 0 W/m² 1,3 °C 3,1 °C 1,6 km/h (1 Bft)
10.11.2017 02:40 3,1 °C 3,1 °C 88 % 1024,8 hPa 0,0 mm 4,5 km/h (1 Bft) S-SW 198 ° 0 min 0,000 mm 0,0 UV-I 0 W/m² 1,3 °C 3,1 °C 6,4 km/h (2 Bft)
10.11.2017 02:41 3,1 °C 3,1 °C 88 % 1024,8 hPa 0,0 mm 4,9 km/h (1 Bft) S-SW 198 ° 0 min 0,000 mm 0,0 UV-I 0 W/m² 1,3 °C 2,0 °C 6,4 km/h (2 Bft)
10.11.2017 02:42 3,1 °C 3,1 °C 88 % 1024,8 hPa 0,0 mm 5,3 km/h (1 Bft) S-SW 198 ° 0 min 0,000 mm 0,0 UV-I 0 W/m² 1,3 °C 1,8 °C 6,4 km/h (2 Bft)
10.11.2017 02:43 3,1 °C 3,1 °C 88 % 1024,9 hPa 0,0 mm 3,0 km/h (1 Bft) S-SW 198 ° 0 min 0,000 mm 0,0 UV-I 0 W/m² 1,3 °C 3,1 °C 4,8 km/h (1 Bft)
10.11.2017 02:44 3,1 °C 3,1 °C 88 % 1024,9 hPa 0,0 mm 1,9 km/h (1 Bft) S-SW 198 ° 0 min 0,000 mm 0,0 UV-I 0 W/m² 1,3 °C 3,1 °C 3,2 km/h (1 Bft)
10.11.2017 02:45 3,1 °C 3,1 °C 88 % 1024,9 hPa 0,0 mm 1,6 km/h (1 Bft) S-SW 198 ° 0 min 0,000 mm 0,0 UV-I 0 W/m² 1,3 °C 3,1 °C 3,2 km/h (1 Bft)
10.11.2017 02:46 3,1 °C 3,1 °C 88 % 1024,9 hPa 0,0 mm 2,2 km/h (1 Bft) S-SW 198 ° 0 min 0,000 mm 0,0 UV-I 0 W/m² 1,3 °C 3,1 °C 4,8 km/h (1 Bft)
10.11.2017 02:47 3,1 °C 3,1 °C 88 % 1024,8 hPa 0,0 mm 3,4 km/h (1 Bft) S-SW 198 ° 0 min 0,000 mm 0,0 UV-I 0 W/m² 1,3 °C 3,1 °C 4,8 km/h (1 Bft)
10.11.2017 02:48 3,1 °C 3,1 °C 88 % 1024,9 hPa 0,0 mm 3,1 km/h (1 Bft) S-SW 198 ° 0 min 0,000 mm 0,0 UV-I 0 W/m² 1,3 °C 3,1 °C 4,8 km/h (1 Bft)
10.11.2017 02:49 3,1 °C 3,1 °C 88 % 1024,8 hPa 0,0 mm 2,3 km/h (1 Bft) S-SW 198 ° 0 min 0,000 mm 0,0 UV-I 0 W/m² 1,3 °C 3,1 °C 4,8 km/h (1 Bft)
10.11.2017 02:50 3,1 °C 3,1 °C 88 % 1024,8 hPa 0,0 mm 1,5 km/h (1 Bft) S-SW 198 ° 0 min 0,000 mm 0,0 UV-I 0 W/m² 1,3 °C 3,1 °C 3,2 km/h (1 Bft)
10.11.2017 02:51 3,1 °C 3,1 °C 89 % 1024,9 hPa 0,0 mm 2,1 km/h (1 Bft) S-SW 198 ° 0 min 0,000 mm 0,0 UV-I 0 W/m² 1,5 °C 3,1 °C 3,2 km/h (1 Bft)
10.11.2017 02:52 3,1 °C 3,1 °C 89 % 1024,9 hPa 0,0 mm 0,5 km/h (0 Bft) S-SW 198 ° 0 min 0,000 mm 0,0 UV-I 0 W/m² 1,5 °C 3,1 °C 1,6 km/h (1 Bft)
10.11.2017 02:53 3,1 °C 3,1 °C 89 % 1024,9 hPa 0,0 mm 0,4 km/h (0 Bft) S-SW 198 ° 0 min 0,000 mm 0,0 UV-I 0 W/m² 1,5 °C 3,1 °C 1,6 km/h (1 Bft)
10.11.2017 02:54 3,1 °C 3,1 °C 89 % 1024,9 hPa 0,0 mm 1,6 km/h (1 Bft) S-SW 198 ° 0 min 0,000 mm 0,0 UV-I 0 W/m² 1,5 °C 3,1 °C 3,2 km/h (1 Bft)
10.11.2017 02:55 3,1 °C 3,1 °C 89 % 1024,9 hPa 0,0 mm 1,5 km/h (1 Bft) S-SW 198 ° 0 min 0,000 mm 0,0 UV-I 0 W/m² 1,5 °C 3,1 °C 3,2 km/h (1 Bft)
10.11.2017 02:56 3,1 °C 3,1 °C 89 % 1024,9 hPa 0,0 mm 1,7 km/h (1 Bft) S-SW 198 ° 0 min 0,000 mm 0,0 UV-I 0 W/m² 1,5 °C 3,1 °C 3,2 km/h (1 Bft)
10.11.2017 02:57 3,1 °C 3,1 °C 89 % 1024,9 hPa 0,0 mm 2,0 km/h (1 Bft) S-SW 198 ° 0 min 0,000 mm 0,0 UV-I 0 W/m² 1,5 °C 3,1 °C 3,2 km/h (1 Bft)
10.11.2017 02:58 3,1 °C 3,1 °C 89 % 1024,9 hPa 0,0 mm 1,7 km/h (1 Bft) S-SW 198 ° 0 min 0,000 mm 0,0 UV-I 0 W/m² 1,5 °C 3,1 °C 3,2 km/h (1 Bft)
10.11.2017 02:59 3,1 °C 3,1 °C 89 % 1024,8 hPa 0,0 mm 1,9 km/h (1 Bft) S-SW 198 ° 0 min 0,000 mm 0,0 UV-I 0 W/m² 1,5 °C 3,1 °C 3,2 km/h (1 Bft)
10.11.2017 03:00 3,1 °C 3,1 °C 89 % 1024,8 hPa 0,0 mm 4,4 km/h (1 Bft) S-SW 198 ° 0 min 0,000 mm 0,0 UV-I 0 W/m² 1,5 °C 3,1 °C 6,4 km/h (2 Bft)
10.11.2017 03:01 3,0 °C 3,1 °C 89 % 1024,8 hPa 0,0 mm 5,3 km/h (1 Bft) S-SW 198 ° 0 min 0,000 mm 0,0 UV-I 0 W/m² 1,4 °C 1,7 °C 6,4 km/h (2 Bft)
10.11.2017 03:02 3,1 °C 3,1 °C 89 % 1024,7 hPa 0,0 mm 4,4 km/h (1 Bft) S-SW 198 ° 0 min 0,000 mm 0,0 UV-I 0 W/m² 1,5 °C 3,1 °C 6,4 km/h (2 Bft)
10.11.2017 03:03 3,0 °C 3,1 °C 88 % 1024,7 hPa 0,0 mm 1,7 km/h (1 Bft) S-SW 198 ° 0 min 0,000 mm 0,0 UV-I 0 W/m² 1,2 °C 3,0 °C 3,2 km/h (1 Bft)
10.11.2017 03:04 3,1 °C 3,1 °C 88 % 1024,7 hPa 0,0 mm 2,9 km/h (1 Bft) S-SW 198 ° 0 min 0,000 mm 0,0 UV-I 0 W/m² 1,3 °C 3,1 °C 4,8 km/h (1 Bft)
10.11.2017 03:05 3,0 °C 3,1 °C 89 % 1024,7 hPa 0,0 mm 2,9 km/h (1 Bft) S-SW 198 ° 0 min 0,000 mm 0,0 UV-I 0 W/m² 1,4 °C 3,0 °C 4,8 km/h (1 Bft)
10.11.2017 03:06 3,0 °C 3,0 °C 89 % 1024,7 hPa 0,0 mm 4,1 km/h (1 Bft) S-SW 198 ° 0 min 0,000 mm 0,0 UV-I 0 W/m² 1,4 °C 3,0 °C 6,4 km/h (2 Bft)
10.11.2017 03:07 3,0 °C 3,1 °C 89 % 1024,7 hPa 0,0 mm 3,9 km/h (1 Bft) S-SW 198 ° 0 min 0,000 mm 0,0 UV-I 0 W/m² 1,4 °C 3,0 °C 4,8 km/h (1 Bft)
10.11.2017 03:08 3,0 °C 3,0 °C 89 % 1024,6 hPa 0,0 mm 3,4 km/h (1 Bft) S-SW 198 ° 0 min 0,000 mm 0,0 UV-I 0 W/m² 1,4 °C 3,0 °C 6,4 km/h (2 Bft)
10.11.2017 03:09 3,0 °C 3,0 °C 89 % 1024,6 hPa 0,0 mm 4,2 km/h (1 Bft) S-SW 198 ° 0 min 0,000 mm 0,0 UV-I 0 W/m² 1,4 °C 3,0 °C 6,4 km/h (2 Bft)
10.11.2017 03:10 3,0 °C 3,0 °C 89 % 1024,6 hPa 0,0 mm 2,5 km/h (1 Bft) S-SW 198 ° 0 min 0,000 mm 0,0 UV-I 0 W/m² 1,4 °C 3,0 °C 4,8 km/h (1 Bft)
10.11.2017 03:11 3,0 °C 3,0 °C 89 % 1024,5 hPa 0,0 mm 3,9 km/h (1 Bft) S-SW 199 ° 0 min 0,000 mm 0,0 UV-I 0 W/m² 1,4 °C 3,0 °C 4,8 km/h (1 Bft)
10.11.2017 03:12 3,0 °C 3,0 °C 89 % 1024,5 hPa 0,0 mm 3,5 km/h (1 Bft) S-SW 199 ° 0 min 0,000 mm 0,0 UV-I 0 W/m² 1,4 °C 3,0 °C 6,4 km/h (2 Bft)
10.11.2017 03:13 3,0 °C 3,0 °C 89 % 1024,4 hPa 0,0 mm 1,8 km/h (1 Bft) S-SW 198 ° 0 min 0,000 mm 0,0 UV-I 0 W/m² 1,4 °C 3,0 °C 3,2 km/h (1 Bft)
10.11.2017 03:14 3,0 °C 3,0 °C 89 % 1024,4 hPa 0,0 mm 2,4 km/h (1 Bft) S-SW 198 ° 0 min 0,000 mm 0,0 UV-I 0 W/m² 1,4 °C 3,0 °C 3,2 km/h (1 Bft)
10.11.2017 03:15 3,0 °C 3,0 °C 89 % 1024,4 hPa 0,0 mm 0,1 km/h (0 Bft) S-SW 198 ° 0 min 0,000 mm 0,0 UV-I 0 W/m² 1,4 °C 3,0 °C 1,6 km/h (1 Bft)
10.11.2017 03:16 3,0 °C 3,0 °C 89 % 1024,3 hPa 0,0 mm 2,1 km/h (1 Bft) S-SW 198 ° 0 min 0,000 mm 0,0 UV-I 0 W/m² 1,4 °C 3,0 °C 3,2 km/h (1 Bft)
10.11.2017 03:17 3,0 °C 3,0 °C 89 % 1024,3 hPa 0,0 mm 2,8 km/h (1 Bft) S-SW 198 ° 0 min 0,000 mm 0,0 UV-I 0 W/m² 1,4 °C 3,0 °C 4,8 km/h (1 Bft)
10.11.2017 03:18 2,9 °C 3,0 °C 89 % 1024,3 hPa 0,0 mm 1,0 km/h (0 Bft) S-SW 198 ° 0 min 0,000 mm 0,0 UV-I 0 W/m² 1,3 °C 2,9 °C 3,2 km/h (1 Bft)
10.11.2017 03:19 2,9 °C 3,0 °C 88 % 1024,3 hPa 0,0 mm 1,0 km/h (0 Bft) S-SW 198 ° 0 min 0,000 mm 0,0 UV-I 0 W/m² 1,1 °C 2,9 °C 3,2 km/h (1 Bft)
10.11.2017 03:20 2,9 °C 2,9 °C 88 % 1024,2 hPa 0,0 mm 0,0 km/h (0 Bft) S-SW 198 ° 0 min 0,000 mm 0,0 UV-I 0 W/m² 1,1 °C 2,9 °C 0,0 km/h (0 Bft)
10.11.2017 03:21 3,0 °C 3,0 °C 88 % 1024,2 hPa 0,0 mm 1,0 km/h (0 Bft) S-SW 199 ° 0 min 0,000 mm 0,0 UV-I 0 W/m² 1,2 °C 3,0 °C 1,6 km/h (1 Bft)
10.11.2017 03:22 2,9 °C 3,0 °C 89 % 1024,2 hPa 0,0 mm 1,3 km/h (1 Bft) S-SW 199 ° 0 min 0,000 mm 0,0 UV-I 0 W/m² 1,3 °C 2,9 °C 4,8 km/h (1 Bft)
10.11.2017 03:23 3,0 °C 3,0 °C 89 % 1024,1 hPa 0,0 mm 0,0 km/h (0 Bft) S-SW 199 ° 0 min 0,000 mm 0,0 UV-I 0 W/m² 1,4 °C 3,0 °C 0,0 km/h (0 Bft)
10.11.2017 03:24 2,9 °C 3,0 °C 89 % 1024,1 hPa 0,0 mm 0,0 km/h (0 Bft) S-SW 199 ° 0 min 0,000 mm 0,0 UV-I 0 W/m² 1,3 °C 2,9 °C 0,0 km/h (0 Bft)
10.11.2017 03:25 2,9 °C 2,9 °C 89 % 1024,1 hPa 0,0 mm 0,0 km/h (0 Bft) S-SW 199 ° 0 min 0,000 mm 0,0 UV-I 0 W/m² 1,3 °C 2,9 °C 0,0 km/h (0 Bft)
10.11.2017 03:26 2,9 °C 2,9 °C 89 % 1024,0 hPa 0,0 mm 0,0 km/h (0 Bft) S-SW 199 ° 0 min 0,000 mm 0,0 UV-I 0 W/m² 1,3 °C 2,9 °C 0,0 km/h (0 Bft)
10.11.2017 03:27 2,9 °C 2,9 °C 89 % 1024,0 hPa 0,0 mm 1,1 km/h (1 Bft) S-SW 199 ° 0 min 0,000 mm 0,0 UV-I 0 W/m² 1,3 °C 2,9 °C 3,2 km/h (1 Bft)
10.11.2017 03:28 2,9 °C 2,9 °C 89 % 1024,0 hPa 0,0 mm 0,0 km/h (0 Bft) S-SW 199 ° 0 min 0,000 mm 0,0 UV-I 0 W/m² 1,3 °C 2,9 °C 0,0 km/h (0 Bft)
10.11.2017 03:29 2,9 °C 2,9 °C 89 % 1023,9 hPa 0,0 mm 0,1 km/h (0 Bft) S-SW 199 ° 0 min 0,000 mm 0,0 UV-I 0 W/m² 1,3 °C 2,9 °C 1,6 km/h (1 Bft)
10.11.2017 03:30 2,9 °C 2,9 °C 89 % 1023,9 hPa 0,0 mm 0,0 km/h (0 Bft) S-SW 199 ° 0 min 0,000 mm 0,0 UV-I 0 W/m² 1,3 °C 2,9 °C 0,0 km/h (0 Bft)
10.11.2017 03:31 2,9 °C 2,9 °C 89 % 1023,9 hPa 0,0 mm 0,0 km/h (0 Bft) S-SW 199 ° 0 min 0,000 mm 0,0 UV-I 0 W/m² 1,3 °C 2,9 °C 0,0 km/h (0 Bft)
10.11.2017 03:32 2,9 °C 2,9 °C 89 % 1023,9 hPa 0,0 mm 1,6 km/h (1 Bft) S-SW 199 ° 0 min 0,000 mm 0,0 UV-I 0 W/m² 1,3 °C 2,9 °C 3,2 km/h (1 Bft)
10.11.2017 03:33 2,9 °C 2,9 °C 89 % 1023,9 hPa 0,0 mm 3,0 km/h (1 Bft) S-SW 199 ° 0 min 0,000 mm 0,0 UV-I 0 W/m² 1,3 °C 2,9 °C 4,8 km/h (1 Bft)
10.11.2017 03:34 2,9 °C 2,9 °C 89 % 1023,9 hPa 0,0 mm 2,9 km/h (1 Bft) S-SW 199 ° 0 min 0,000 mm 0,0 UV-I 0 W/m² 1,3 °C 2,9 °C 4,8 km/h (1 Bft)
10.11.2017 03:35 2,9 °C 2,9 °C 88 % 1023,8 hPa 0,0 mm 3,8 km/h (1 Bft) S-SW 199 ° 0 min 0,000 mm 0,0 UV-I 0 W/m² 1,1 °C 2,9 °C 4,8 km/h (1 Bft)
10.11.2017 03:36 2,9 °C 2,9 °C 88 % 1023,8 hPa 0,0 mm 2,6 km/h (1 Bft) S-SW 199 ° 0 min 0,000 mm 0,0 UV-I 0 W/m² 1,1 °C 2,9 °C 6,4 km/h (2 Bft)
10.11.2017 03:37 2,9 °C 2,9 °C 88 % 1023,7 hPa 0,0 mm 3,8 km/h (1 Bft) S-SW 199 ° 0 min 0,000 mm 0,0 UV-I 0 W/m² 1,1 °C 2,9 °C 8,0 km/h (2 Bft)
10.11.2017 03:38 2,9 °C 2,9 °C 88 % 1023,7 hPa 0,0 mm 3,4 km/h (1 Bft) S-SW 199 ° 0 min 0,000 mm 0,0 UV-I 0 W/m² 1,1 °C 2,9 °C 4,8 km/h (1 Bft)
10.11.2017 03:39 2,9 °C 2,9 °C 88 % 1023,7 hPa 0,0 mm 3,0 km/h (1 Bft) S-SW 199 ° 0 min 0,000 mm 0,0 UV-I 0 W/m² 1,1 °C 2,9 °C 4,8 km/h (1 Bft)
10.11.2017 03:40 2,9 °C 2,9 °C 88 % 1023,7 hPa 0,0 mm 2,6 km/h (1 Bft) S-SW 199 ° 0 min 0,000 mm 0,0 UV-I 0 W/m² 1,1 °C 2,9 °C 4,8 km/h (1 Bft)
10.11.2017 03:41 2,9 °C 2,9 °C 88 % 1023,7 hPa 0,0 mm 3,2 km/h (1 Bft) S-SW 199 ° 0 min 0,000 mm 0,0 UV-I 0 W/m² 1,1 °C 2,9 °C 4,8 km/h (1 Bft)
10.11.2017 03:42 2,9 °C 2,9 °C 88 % 1023,7 hPa 0,0 mm 4,4 km/h (1 Bft) S-SW 199 ° 0 min 0,000 mm 0,0 UV-I 0 W/m² 1,1 °C 2,9 °C 6,4 km/h (2 Bft)
10.11.2017 03:43 2,9 °C 2,9 °C 88 % 1023,7 hPa 0,0 mm 1,5 km/h (1 Bft) S-SW 199 ° 0 min 0,000 mm 0,0 UV-I 0 W/m² 1,1 °C 2,9 °C 4,8 km/h (1 Bft)
10.11.2017 03:44 2,9 °C 2,9 °C 88 % 1023,7 hPa 0,0 mm 3,8 km/h (1 Bft) S-SW 199 ° 0 min 0,000 mm 0,0 UV-I 0 W/m² 1,1 °C 2,9 °C 6,4 km/h (2 Bft)
10.11.2017 03:45 2,9 °C 2,9 °C 88 % 1023,7 hPa 0,0 mm 2,3 km/h (1 Bft) S-SW 199 ° 0 min 0,000 mm 0,0 UV-I 0 W/m² 1,1 °C 2,9 °C 3,2 km/h (1 Bft)
10.11.2017 03:46 2,9 °C 2,9 °C 88 % 1023,7 hPa 0,0 mm 1,6 km/h (1 Bft) S-SW 199 ° 0 min 0,000 mm 0,0 UV-I 0 W/m² 1,1 °C 2,9 °C 3,2 km/h (1 Bft)
10.11.2017 03:47 2,9 °C 2,9 °C 88 % 1023,7 hPa 0,0 mm 1,0 km/h (0 Bft) S-SW 199 ° 0 min 0,000 mm 0,0 UV-I 0 W/m² 1,1 °C 2,9 °C 3,2 km/h (1 Bft)
10.11.2017 03:48 2,9 °C 2,9 °C 88 % 1023,7 hPa 0,0 mm 1,4 km/h (1 Bft) S-SW 199 ° 0 min 0,000 mm 0,0 UV-I 0 W/m² 1,1 °C 2,9 °C 1,6 km/h (1 Bft)
10.11.2017 03:49 2,9 °C 2,9 °C 88 % 1023,7 hPa 0,0 mm 2,6 km/h (1 Bft) S-SW 199 ° 0 min 0,000 mm 0,0 UV-I 0 W/m² 1,1 °C 2,9 °C 3,2 km/h (1 Bft)
10.11.2017 03:50 2,9 °C 2,9 °C 88 % 1023,7 hPa 0,0 mm 3,0 km/h (1 Bft) S-SW 199 ° 0 min 0,000 mm 0,0 UV-I 0 W/m² 1,1 °C 2,9 °C 4,8 km/h (1 Bft)
10.11.2017 03:51 2,9 °C 2,9 °C 88 % 1023,7 hPa 0,0 mm 2,5 km/h (1 Bft) S-SW 199 ° 0 min 0,000 mm 0,0 UV-I 0 W/m² 1,1 °C 2,9 °C 4,8 km/h (1 Bft)
10.11.2017 03:52 2,9 °C 2,9 °C 88 % 1023,7 hPa 0,0 mm 4,5 km/h (1 Bft) S-SW 200 ° 0 min 0,000 mm 0,0 UV-I 0 W/m² 1,1 °C 2,9 °C 6,4 km/h (2 Bft)
10.11.2017 03:53 2,9 °C 2,9 °C 88 % 1023,6 hPa 0,0 mm 1,4 km/h (1 Bft) S-SW 200 ° 0 min 0,000 mm 0,0 UV-I 0 W/m² 1,1 °C 2,9 °C 3,2 km/h (1 Bft)
10.11.2017 03:54 2,9 °C 2,9 °C 88 % 1023,7 hPa 0,0 mm 2,1 km/h (1 Bft) S-SW 200 ° 0 min 0,000 mm 0,0 UV-I 0 W/m² 1,1 °C 2,9 °C 3,2 km/h (1 Bft)
10.11.2017 03:55 2,9 °C 2,9 °C 88 % 1023,6 hPa 0,0 mm 1,7 km/h (1 Bft) S-SW 200 ° 0 min 0,000 mm 0,0 UV-I 0 W/m² 1,1 °C 2,9 °C 3,2 km/h (1 Bft)
10.11.2017 03:56 2,9 °C 2,9 °C 88 % 1023,6 hPa 0,0 mm 1,6 km/h (1 Bft) S-SW 200 ° 0 min 0,000 mm 0,0 UV-I 0 W/m² 1,1 °C 2,9 °C 4,8 km/h (1 Bft)
10.11.2017 03:57 2,9 °C 2,9 °C 88 % 1023,6 hPa 0,0 mm 4,8 km/h (1 Bft) S-SW 200 ° 0 min 0,000 mm 0,0 UV-I 0 W/m² 1,1 °C 1,8 °C 8,0 km/h (2 Bft)
10.11.2017 03:58 2,9 °C 2,9 °C 88 % 1023,6 hPa 0,0 mm 4,1 km/h (1 Bft) S-SW 200 ° 0 min 0,000 mm 0,0 UV-I 0 W/m² 1,1 °C 2,9 °C 6,4 km/h (2 Bft)
10.11.2017 03:59 2,9 °C 2,9 °C 88 % 1023,6 hPa 0,0 mm 3,3 km/h (1 Bft) S-SW 200 ° 0 min 0,000 mm 0,0 UV-I 0 W/m² 1,1 °C 2,9 °C 4,8 km/h (1 Bft)
10.11.2017 04:00 2,9 °C 2,9 °C 88 % 1023,6 hPa 0,0 mm 3,1 km/h (1 Bft) S-SW 200 ° 0 min 0,000 mm 0,0 UV-I 0 W/m² 1,1 °C 2,9 °C 4,8 km/h (1 Bft)
10.11.2017 04:01 2,9 °C 2,9 °C 88 % 1023,6 hPa 0,0 mm 4,0 km/h (1 Bft) S-SW 199 ° 0 min 0,000 mm 0,0 UV-I 0 W/m² 1,1 °C 2,9 °C 6,4 km/h (2 Bft)
10.11.2017 04:02 2,9 °C 2,9 °C 88 % 1023,6 hPa 0,0 mm 2,8 km/h (1 Bft) S-SW 199 ° 0 min 0,000 mm 0,0 UV-I 0 W/m² 1,1 °C 2,9 °C 4,8 km/h (1 Bft)
10.11.2017 04:03 2,9 °C 2,9 °C 88 % 1023,6 hPa 0,0 mm 4,7 km/h (1 Bft) S-SW 199 ° 0 min 0,000 mm 0,0 UV-I 0 W/m² 1,1 °C 1,8 °C 6,4 km/h (2 Bft)
10.11.2017 04:04 2,8 °C 2,9 °C 87 % 1023,6 hPa 0,0 mm 4,4 km/h (1 Bft) S-SW 203 ° 0 min 0,000 mm 0,0 UV-I 0 W/m² 0,9 °C 2,8 °C 6,4 km/h (2 Bft)
10.11.2017 04:05 2,8 °C 2,9 °C 87 % 1023,6 hPa 0,0 mm 1,4 km/h (1 Bft) S-SW 203 ° 0 min 0,000 mm 0,0 UV-I 0 W/m² 0,9 °C 2,8 °C 1,6 km/h (1 Bft)
10.11.2017 04:06 2,9 °C 2,9 °C 88 % 1023,6 hPa 0,0 mm 0,3 km/h (0 Bft) S-SW 203 ° 0 min 0,000 mm 0,0 UV-I 0 W/m² 1,1 °C 2,9 °C 1,6 km/h (1 Bft)
10.11.2017 04:07 2,9 °C 2,9 °C 88 % 1023,6 hPa 0,0 mm 1,2 km/h (1 Bft) S-SW 203 ° 0 min 0,000 mm 0,0 UV-I 0 W/m² 1,1 °C 2,9 °C 4,8 km/h (1 Bft)
10.11.2017 04:08 2,9 °C 2,9 °C 88 % 1023,6 hPa 0,0 mm 3,8 km/h (1 Bft) S-SW 203 ° 0 min 0,000 mm 0,0 UV-I 0 W/m² 1,1 °C 2,9 °C 6,4 km/h (2 Bft)
10.11.2017 04:09 2,9 °C 2,9 °C 88 % 1023,6 hPa 0,0 mm 2,5 km/h (1 Bft) S-SW 203 ° 0 min 0,000 mm 0,0 UV-I 0 W/m² 1,1 °C 2,9 °C 3,2 km/h (1 Bft)
10.11.2017 04:10 2,9 °C 2,9 °C 88 % 1023,5 hPa 0,0 mm 2,1 km/h (1 Bft) S-SW 203 ° 0 min 0,000 mm 0,0 UV-I 0 W/m² 1,1 °C 2,9 °C 3,2 km/h (1 Bft)
10.11.2017 04:11 2,8 °C 2,9 °C 88 % 1023,5 hPa 0,0 mm 1,5 km/h (1 Bft) S-SW 203 ° 0 min 0,000 mm 0,0 UV-I 0 W/m² 1,0 °C 2,8 °C 3,2 km/h (1 Bft)
10.11.2017 04:12 2,8 °C 2,9 °C 88 % 1023,5 hPa 0,0 mm 1,1 km/h (1 Bft) S-SW 203 ° 0 min 0,000 mm 0,0 UV-I 0 W/m² 1,0 °C 2,8 °C 3,2 km/h (1 Bft)
10.11.2017 04:13 2,9 °C 2,9 °C 88 % 1023,5 hPa 0,0 mm 0,0 km/h (0 Bft) S-SW 203 ° 0 min 0,000 mm 0,0 UV-I 0 W/m² 1,1 °C 2,9 °C 0,0 km/h (0 Bft)
10.11.2017 04:14 2,9 °C 2,9 °C 88 % 1023,5 hPa 0,0 mm 1,1 km/h (1 Bft) S-SW 203 ° 0 min 0,000 mm 0,0 UV-I 0 W/m² 1,1 °C 2,9 °C 3,2 km/h (1 Bft)
10.11.2017 04:15 2,9 °C 2,9 °C 88 % 1023,4 hPa 0,0 mm 1,2 km/h (1 Bft) S-SW 203 ° 0 min 0,000 mm 0,0 UV-I 0 W/m² 1,1 °C 2,9 °C 3,2 km/h (1 Bft)
10.11.2017 04:16 2,8 °C 2,9 °C 88 % 1023,4 hPa 0,0 mm 2,7 km/h (1 Bft) S-SW 203 ° 0 min 0,000 mm 0,0 UV-I 0 W/m² 1,0 °C 2,8 °C 4,8 km/h (1 Bft)
10.11.2017 04:17 2,8 °C 2,9 °C 88 % 1023,3 hPa 0,0 mm 2,5 km/h (1 Bft) S-SW 203 ° 0 min 0,000 mm 0,0 UV-I 0 W/m² 1,0 °C 2,8 °C 4,8 km/h (1 Bft)
10.11.2017 04:18 2,8 °C 2,9 °C 88 % 1023,3 hPa 0,0 mm 1,3 km/h (1 Bft) S-SW 203 ° 0 min 0,000 mm 0,0 UV-I 0 W/m² 1,0 °C 2,8 °C 3,2 km/h (1 Bft)
10.11.2017 04:19 2,8 °C 2,8 °C 88 % 1023,3 hPa 0,0 mm 0,7 km/h (0 Bft) S-SW 203 ° 0 min 0,000 mm 0,0 UV-I 0 W/m² 1,0 °C 2,8 °C 3,2 km/h (1 Bft)
10.11.2017 04:20 2,8 °C 2,9 °C 88 % 1023,3 hPa 0,0 mm 0,6 km/h (0 Bft) S-SW 203 ° 0 min 0,000 mm 0,0 UV-I 0 W/m² 1,0 °C 2,8 °C 3,2 km/h (1 Bft)
10.11.2017 04:21 2,8 °C 2,8 °C 88 % 1023,3 hPa 0,0 mm 5,4 km/h (1 Bft) S 170 ° 0 min 0,000 mm 0,0 UV-I 0 W/m² 1,0 °C 1,4 °C 8,0 km/h (2 Bft)
10.11.2017 04:22 2,8 °C 2,8 °C 88 % 1023,3 hPa 0,0 mm 3,1 km/h (1 Bft) S 173 ° 0 min 0,000 mm 0,0 UV-I 0 W/m² 1,0 °C 2,8 °C 4,8 km/h (1 Bft)
10.11.2017 04:23 2,8 °C 2,8 °C 88 % 1023,3 hPa 0,0 mm 3,5 km/h (1 Bft) S 173 ° 0 min 0,000 mm 0,0 UV-I 0 W/m² 1,0 °C 2,8 °C 8,0 km/h (2 Bft)
10.11.2017 04:24 2,8 °C 2,8 °C 87 % 1023,3 hPa 0,0 mm 0,5 km/h (0 Bft) S 173 ° 0 min 0,000 mm 0,0 UV-I 0 W/m² 0,9 °C 2,8 °C 1,6 km/h (1 Bft)
10.11.2017 04:25 2,8 °C 2,8 °C 87 % 1023,2 hPa 0,0 mm 2,5 km/h (1 Bft) S 173 ° 0 min 0,000 mm 0,0 UV-I 0 W/m² 0,9 °C 2,8 °C 3,2 km/h (1 Bft)
10.11.2017 04:26 2,8 °C 2,8 °C 87 % 1023,2 hPa 0,0 mm 2,1 km/h (1 Bft) S 173 ° 0 min 0,000 mm 0,0 UV-I 0 W/m² 0,9 °C 2,8 °C 3,2 km/h (1 Bft)
10.11.2017 04:27 2,8 °C 2,8 °C 87 % 1023,2 hPa 0,0 mm 2,5 km/h (1 Bft) S 191 ° 0 min 0,000 mm 0,0 UV-I 0 W/m² 0,9 °C 2,8 °C 6,4 km/h (2 Bft)
10.11.2017 04:28 2,8 °C 2,8 °C 87 % 1023,2 hPa 0,0 mm 1,5 km/h (1 Bft) S 191 ° 0 min 0,000 mm 0,0 UV-I 0 W/m² 0,9 °C 2,8 °C 3,2 km/h (1 Bft)
10.11.2017 04:29 2,8 °C 2,8 °C 87 % 1023,1 hPa 0,0 mm 2,5 km/h (1 Bft) S 191 ° 0 min 0,000 mm 0,0 UV-I 0 W/m² 0,9 °C 2,8 °C 4,8 km/h (1 Bft)
10.11.2017 04:30 2,8 °C 2,8 °C 87 % 1023,1 hPa 0,0 mm 1,6 km/h (1 Bft) S 191 ° 0 min 0,000 mm 0,0 UV-I 0 W/m² 0,9 °C 2,8 °C 3,2 km/h (1 Bft)
10.11.2017 04:31 2,8 °C 2,8 °C 87 % 1023,1 hPa 0,0 mm 0,9 km/h (0 Bft) S 191 ° 0 min 0,000 mm 0,0 UV-I 0 W/m² 0,9 °C 2,8 °C 3,2 km/h (1 Bft)
10.11.2017 04:32 2,8 °C 2,8 °C 88 % 1023,1 hPa 0,0 mm 1,6 km/h (1 Bft) S 191 ° 0 min 0,000 mm 0,0 UV-I 0 W/m² 1,0 °C 2,8 °C 3,2 km/h (1 Bft)
10.11.2017 04:33 2,8 °C 2,8 °C 87 % 1023,0 hPa 0,0 mm 1,5 km/h (1 Bft) S-SW 192 ° 0 min 0,000 mm 0,0 UV-I 0 W/m² 0,9 °C 2,8 °C 4,8 km/h (1 Bft)
10.11.2017 04:34 2,8 °C 2,8 °C 88 % 1023,0 hPa 0,0 mm 2,1 km/h (1 Bft) S 183 ° 0 min 0,000 mm 0,0 UV-I 0 W/m² 1,0 °C 2,8 °C 4,8 km/h (1 Bft)
10.11.2017 04:35 2,8 °C 2,8 °C 88 % 1023,0 hPa 0,0 mm 0,4 km/h (0 Bft) S 183 ° 0 min 0,000 mm 0,0 UV-I 0 W/m² 1,0 °C 2,8 °C 3,2 km/h (1 Bft)
10.11.2017 04:36 2,8 °C 2,8 °C 88 % 1023,0 hPa 0,0 mm 4,2 km/h (1 Bft) S 184 ° 0 min 0,000 mm 0,0 UV-I 0 W/m² 1,0 °C 2,8 °C 8,0 km/h (2 Bft)
10.11.2017 04:37 2,8 °C 2,8 °C 87 % 1023,0 hPa 0,0 mm 3,0 km/h (1 Bft) S 184 ° 0 min 0,000 mm 0,0 UV-I 0 W/m² 0,9 °C 2,8 °C 4,8 km/h (1 Bft)
10.11.2017 04:38 2,8 °C 2,8 °C 87 % 1023,0 hPa 0,0 mm 3,0 km/h (1 Bft) S 184 ° 0 min 0,000 mm 0,0 UV-I 0 W/m² 0,9 °C 2,8 °C 4,8 km/h (1 Bft)
10.11.2017 04:39 2,8 °C 2,8 °C 87 % 1023,0 hPa 0,0 mm 0,6 km/h (0 Bft) S 184 ° 0 min 0,000 mm 0,0 UV-I 0 W/m² 0,9 °C 2,8 °C 3,2 km/h (1 Bft)
10.11.2017 04:40 2,8 °C 2,8 °C 88 % 1022,9 hPa 0,0 mm 1,3 km/h (1 Bft) S 184 ° 0 min 0,000 mm 0,0 UV-I 0 W/m² 1,0 °C 2,8 °C 3,2 km/h (1 Bft)
10.11.2017 04:41 2,8 °C 2,8 °C 88 % 1022,8 hPa 0,0 mm 1,5 km/h (1 Bft) S 184 ° 0 min 0,000 mm 0,0 UV-I 0 W/m² 1,0 °C 2,8 °C 3,2 km/h (1 Bft)
10.11.2017 04:42 2,8 °C 2,8 °C 88 % 1022,8 hPa 0,0 mm 1,5 km/h (1 Bft) S 184 ° 0 min 0,000 mm 0,0 UV-I 0 W/m² 1,0 °C 2,8 °C 3,2 km/h (1 Bft)
10.11.2017 04:43 2,8 °C 2,8 °C 88 % 1022,8 hPa 0,0 mm 0,0 km/h (0 Bft) S 184 ° 0 min 0,000 mm 0,0 UV-I 0 W/m² 1,0 °C 2,8 °C 0,0 km/h (0 Bft)
10.11.2017 04:44 2,8 °C 2,8 °C 88 % 1022,8 hPa 0,0 mm 0,3 km/h (0 Bft) S 184 ° 0 min 0,000 mm 0,0 UV-I 0 W/m² 1,0 °C 2,8 °C 1,6 km/h (1 Bft)
10.11.2017 04:45 2,8 °C 2,8 °C 88 % 1022,9 hPa 0,0 mm 1,7 km/h (1 Bft) S-SO 163 ° 0 min 0,000 mm 0,0 UV-I 0 W/m² 1,0 °C 2,8 °C 3,2 km/h (1 Bft)
10.11.2017 04:46 2,8 °C 2,8 °C 88 % 1022,9 hPa 0,0 mm 0,1 km/h (0 Bft) S-SO 163 ° 0 min 0,000 mm 0,0 UV-I 0 W/m² 1,0 °C 2,8 °C 1,6 km/h (1 Bft)
10.11.2017 04:47 2,8 °C 2,8 °C 88 % 1022,8 hPa 0,0 mm 0,0 km/h (0 Bft) S-SO 163 ° 0 min 0,000 mm 0,0 UV-I 0 W/m² 1,0 °C 2,8 °C 0,0 km/h (0 Bft)
10.11.2017 04:48 2,8 °C 2,8 °C 88 % 1022,8 hPa 0,0 mm 0,4 km/h (0 Bft) S-SO 163 ° 0 min 0,000 mm 0,0 UV-I 0 W/m² 1,0 °C 2,8 °C 1,6 km/h (1 Bft)
10.11.2017 04:49 2,8 °C 2,8 °C 88 % 1022,6 hPa 0,0 mm 0,5 km/h (0 Bft) S-SO 164 ° 0 min 0,000 mm 0,0 UV-I 0 W/m² 1,0 °C 2,8 °C 1,6 km/h (1 Bft)
10.11.2017 04:50 2,8 °C 2,8 °C 88 % 1022,6 hPa 0,0 mm 0,2 km/h (0 Bft) S-SO 164 ° 0 min 0,000 mm 0,0 UV-I 0 W/m² 1,0 °C 2,8 °C 1,6 km/h (1 Bft)
10.11.2017 04:51 2,8 °C 2,8 °C 88 % 1022,6 hPa 0,0 mm 0,0 km/h (0 Bft) S-SO 163 ° 0 min 0,000 mm 0,0 UV-I 0 W/m² 1,0 °C 2,8 °C 0,0 km/h (0 Bft)
10.11.2017 04:52 2,8 °C 2,8 °C 88 % 1022,6 hPa 0,0 mm 2,3 km/h (1 Bft) S 182 ° 0 min 0,000 mm 0,0 UV-I 0 W/m² 1,0 °C 2,8 °C 8,0 km/h (2 Bft)
10.11.2017 04:53 2,8 °C 2,8 °C 88 % 1022,6 hPa 0,0 mm 2,6 km/h (1 Bft) S-SW 194 ° 0 min 0,000 mm 0,0 UV-I 0 W/m² 1,0 °C 2,8 °C 6,4 km/h (2 Bft)
10.11.2017 04:54 2,8 °C 2,8 °C 87 % 1022,5 hPa 0,0 mm 3,8 km/h (1 Bft) W-SW 248 ° 0 min 0,000 mm 0,0 UV-I 0 W/m² 0,9 °C 2,8 °C 6,4 km/h (2 Bft)
10.11.2017 04:55 2,8 °C 2,8 °C 87 % 1022,6 hPa 0,0 mm 0,6 km/h (0 Bft) W-SW 248 ° 0 min 0,000 mm 0,0 UV-I 0 W/m² 0,9 °C 2,8 °C 1,6 km/h (1 Bft)
10.11.2017 04:56 2,8 °C 2,8 °C 87 % 1022,6 hPa 0,0 mm 0,0 km/h (0 Bft) W-SW 248 ° 0 min 0,000 mm 0,0 UV-I 0 W/m² 0,9 °C 2,8 °C 0,0 km/h (0 Bft)
10.11.2017 04:57 2,8 °C 2,8 °C 87 % 1022,6 hPa 0,0 mm 0,0 km/h (0 Bft) W-SW 248 ° 0 min 0,000 mm 0,0 UV-I 0 W/m² 0,9 °C 2,8 °C 0,0 km/h (0 Bft)
10.11.2017 04:58 2,8 °C 2,8 °C 87 % 1022,6 hPa 0,0 mm 0,0 km/h (0 Bft) W-SW 248 ° 0 min 0,000 mm 0,0 UV-I 0 W/m² 0,9 °C 2,8 °C 0,0 km/h (0 Bft)
10.11.2017 04:59 2,8 °C 2,8 °C 87 % 1022,6 hPa 0,0 mm 0,0 km/h (0 Bft) W-SW 248 ° 0 min 0,000 mm 0,0 UV-I 0 W/m² 0,9 °C 2,8 °C 0,0 km/h (0 Bft)
10.11.2017 05:00 2,8 °C 2,8 °C 88 % 1022,6 hPa 0,0 mm 0,0 km/h (0 Bft) W-SW 248 ° 0 min 0,000 mm 0,0 UV-I 0 W/m² 1,0 °C 2,8 °C 0,0 km/h (0 Bft)
10.11.2017 05:01 2,8 °C 2,8 °C 88 % 1022,7 hPa 0,0 mm 0,0 km/h (0 Bft) W-SW 248 ° 0 min 0,000 mm 0,0 UV-I 0 W/m² 1,0 °C 2,8 °C 0,0 km/h (0 Bft)
10.11.2017 05:02 2,8 °C 2,8 °C 88 % 1022,7 hPa 0,0 mm 0,7 km/h (0 Bft) SW 219 ° 0 min 0,000 mm 0,0 UV-I 0 W/m² 1,0 °C 2,8 °C 3,2 km/h (1 Bft)
10.11.2017 05:03 2,8 °C 2,8 °C 88 % 1022,7 hPa 0,0 mm 4,7 km/h (1 Bft) S-SW 211 ° 0 min 0,000 mm 0,0 UV-I 0 W/m² 1,0 °C 1,7 °C 4,8 km/h (1 Bft)
10.11.2017 05:04 2,8 °C 2,8 °C 88 % 1022,7 hPa 0,0 mm 1,5 km/h (1 Bft) S-SW 211 ° 0 min 0,000 mm 0,0 UV-I 0 W/m² 1,0 °C 2,8 °C 3,2 km/h (1 Bft)
10.11.2017 05:05 2,8 °C 2,8 °C 87 % 1022,7 hPa 0,0 mm 0,7 km/h (0 Bft) S-SW 211 ° 0 min 0,000 mm 0,0 UV-I 0 W/m² 0,9 °C 2,8 °C 1,6 km/h (1 Bft)
10.11.2017 05:06 2,8 °C 2,8 °C 87 % 1022,7 hPa 0,0 mm 1,0 km/h (0 Bft) S-SW 211 ° 0 min 0,000 mm 0,0 UV-I 0 W/m² 0,9 °C 2,8 °C 3,2 km/h (1 Bft)
10.11.2017 05:07 2,8 °C 2,8 °C 87 % 1022,7 hPa 0,0 mm 2,6 km/h (1 Bft) S-SW 211 ° 0 min 0,000 mm 0,0 UV-I 0 W/m² 0,9 °C 2,8 °C 4,8 km/h (1 Bft)
10.11.2017 05:08 2,8 °C 2,8 °C 87 % 1022,7 hPa 0,0 mm 2,8 km/h (1 Bft) SW 219 ° 0 min 0,000 mm 0,0 UV-I 0 W/m² 0,9 °C 2,8 °C 4,8 km/h (1 Bft)
10.11.2017 05:09 2,8 °C 2,8 °C 87 % 1022,7 hPa 0,0 mm 2,1 km/h (1 Bft) SW 217 ° 0 min 0,000 mm 0,0 UV-I 0 W/m² 0,9 °C 2,8 °C 4,8 km/h (1 Bft)
10.11.2017 05:10 2,8 °C 2,8 °C 87 % 1022,6 hPa 0,0 mm 0,7 km/h (0 Bft) SW 217 ° 0 min 0,000 mm 0,0 UV-I 0 W/m² 0,9 °C 2,8 °C 3,2 km/h (1 Bft)
10.11.2017 05:11 2,8 °C 2,8 °C 87 % 1022,5 hPa 0,0 mm 0,0 km/h (0 Bft) SW 217 ° 0 min 0,000 mm 0,0 UV-I 0 W/m² 0,9 °C 2,8 °C 0,0 km/h (0 Bft)
10.11.2017 05:12 2,8 °C 2,8 °C 87 % 1022,5 hPa 0,0 mm 0,0 km/h (0 Bft) SW 217 ° 0 min 0,000 mm 0,0 UV-I 0 W/m² 0,9 °C 2,8 °C 0,0 km/h (0 Bft)
10.11.2017 05:13 2,8 °C 2,8 °C 88 % 1022,5 hPa 0,0 mm 0,0 km/h (0 Bft) SW 217 ° 0 min 0,000 mm 0,0 UV-I 0 W/m² 1,0 °C 2,8 °C 0,0 km/h (0 Bft)
10.11.2017 05:14 2,8 °C 2,8 °C 88 % 1022,5 hPa 0,0 mm 3,2 km/h (1 Bft) SW 228 ° 0 min 0,000 mm 0,0 UV-I 0 W/m² 1,0 °C 2,8 °C 6,4 km/h (2 Bft)
10.11.2017 05:15 2,8 °C 2,8 °C 87 % 1022,5 hPa 0,0 mm 2,8 km/h (1 Bft) SW 228 ° 0 min 0,000 mm 0,0 UV-I 0 W/m² 0,9 °C 2,8 °C 4,8 km/h (1 Bft)
10.11.2017 05:16 2,8 °C 2,8 °C 87 % 1022,5 hPa 0,0 mm 0,3 km/h (0 Bft) SW 228 ° 0 min 0,000 mm 0,0 UV-I 0 W/m² 0,9 °C 2,8 °C 1,6 km/h (1 Bft)
10.11.2017 05:17 2,8 °C 2,8 °C 87 % 1022,4 hPa 0,0 mm 0,0 km/h (0 Bft) SW 228 ° 0 min 0,000 mm 0,0 UV-I 0 W/m² 0,9 °C 2,8 °C 0,0 km/h (0 Bft)
10.11.2017 05:18 2,8 °C 2,8 °C 88 % 1022,5 hPa 0,0 mm 0,0 km/h (0 Bft) SW 228 ° 0 min 0,000 mm 0,0 UV-I 0 W/m² 1,0 °C 2,8 °C 0,0 km/h (0 Bft)
10.11.2017 05:19 2,7 °C 2,8 °C 88 % 1022,5 hPa 0,0 mm 0,0 km/h (0 Bft) SW 228 ° 0 min 0,000 mm 0,0 UV-I 0 W/m² 0,9 °C 2,7 °C 0,0 km/h (0 Bft)
10.11.2017 05:20 2,7 °C 2,8 °C 88 % 1022,5 hPa 0,0 mm 0,0 km/h (0 Bft) SW 228 ° 0 min 0,000 mm 0,0 UV-I 0 W/m² 0,9 °C 2,7 °C 0,0 km/h (0 Bft)
10.11.2017 05:21 2,8 °C 2,8 °C 88 % 1022,5 hPa 0,0 mm 0,0 km/h (0 Bft) SW 228 ° 0 min 0,000 mm 0,0 UV-I 0 W/m² 1,0 °C 2,8 °C 0,0 km/h (0 Bft)
10.11.2017 05:22 2,8 °C 2,8 °C 88 % 1022,5 hPa 0,0 mm 0,0 km/h (0 Bft) SW 228 ° 0 min 0,000 mm 0,0 UV-I 0 W/m² 1,0 °C 2,8 °C 0,0 km/h (0 Bft)
10.11.2017 05:23 2,8 °C 2,8 °C 88 % 1022,6 hPa 0,0 mm 0,2 km/h (0 Bft) SW 228 ° 0 min 0,000 mm 0,0 UV-I 0 W/m² 1,0 °C 2,8 °C 1,6 km/h (1 Bft)
10.11.2017 05:24 2,7 °C 2,8 °C 87 % 1022,6 hPa 0,0 mm 2,3 km/h (1 Bft) SW 228 ° 0 min 0,000 mm 0,0 UV-I 0 W/m² 0,8 °C 2,7 °C 3,2 km/h (1 Bft)
10.11.2017 05:25 2,7 °C 2,8 °C 87 % 1022,7 hPa 0,0 mm 2,3 km/h (1 Bft) SW 228 ° 0 min 0,000 mm 0,0 UV-I 0 W/m² 0,8 °C 2,7 °C 4,8 km/h (1 Bft)
10.11.2017 05:26 2,8 °C 2,8 °C 87 % 1022,7 hPa 0,0 mm 1,3 km/h (1 Bft) SW 228 ° 0 min 0,000 mm 0,0 UV-I 0 W/m² 0,9 °C 2,8 °C 3,2 km/h (1 Bft)
10.11.2017 05:27 2,8 °C 2,8 °C 87 % 1022,8 hPa 0,0 mm 1,0 km/h (0 Bft) SW 228 ° 0 min 0,000 mm 0,0 UV-I 0 W/m² 0,9 °C 2,8 °C 1,6 km/h (1 Bft)
10.11.2017 05:28 2,7 °C 2,8 °C 87 % 1022,7 hPa 0,0 mm 2,1 km/h (1 Bft) SW 228 ° 0 min 0,000 mm 0,0 UV-I 0 W/m² 0,8 °C 2,7 °C 4,8 km/h (1 Bft)
10.11.2017 05:29 2,7 °C 2,7 °C 87 % 1022,8 hPa 0,0 mm 2,9 km/h (1 Bft) S-SW 192 ° 0 min 0,000 mm 0,0 UV-I 0 W/m² 0,8 °C 2,7 °C 6,4 km/h (2 Bft)
10.11.2017 05:30 2,8 °C 2,8 °C 87 % 1022,8 hPa 0,0 mm 4,0 km/h (1 Bft) S-SW 192 ° 0 min 0,000 mm 0,0 UV-I 0 W/m² 0,9 °C 2,8 °C 6,4 km/h (2 Bft)
10.11.2017 05:31 2,7 °C 2,8 °C 87 % 1022,9 hPa 0,0 mm 2,3 km/h (1 Bft) S-SW 192 ° 0 min 0,000 mm 0,0 UV-I 0 W/m² 0,8 °C 2,7 °C 3,2 km/h (1 Bft)
10.11.2017 05:32 2,8 °C 2,8 °C 87 % 1022,9 hPa 0,0 mm 1,9 km/h (1 Bft) S-SW 192 ° 0 min 0,000 mm 0,0 UV-I 0 W/m² 0,9 °C 2,8 °C 3,2 km/h (1 Bft)
10.11.2017 05:33 2,8 °C 2,8 °C 87 % 1023,0 hPa 0,0 mm 2,5 km/h (1 Bft) S-SW 192 ° 0 min 0,000 mm 0,0 UV-I 0 W/m² 0,9 °C 2,8 °C 3,2 km/h (1 Bft)
10.11.2017 05:34 2,8 °C 2,8 °C 87 % 1023,0 hPa 0,0 mm 0,8 km/h (0 Bft) S-SW 192 ° 0 min 0,000 mm 0,0 UV-I 0 W/m² 0,9 °C 2,8 °C 1,6 km/h (1 Bft)
10.11.2017 05:35 2,8 °C 2,8 °C 87 % 1023,0 hPa 0,0 mm 0,4 km/h (0 Bft) S-SW 192 ° 0 min 0,000 mm 0,0 UV-I 0 W/m² 0,9 °C 2,8 °C 1,6 km/h (1 Bft)
10.11.2017 05:36 2,8 °C 2,8 °C 87 % 1023,0 hPa 0,0 mm 2,3 km/h (1 Bft) S-SW 192 ° 0 min 0,000 mm 0,0 UV-I 0 W/m² 0,9 °C 2,8 °C 3,2 km/h (1 Bft)
10.11.2017 05:37 2,8 °C 2,8 °C 87 % 1023,0 hPa 0,0 mm 1,5 km/h (1 Bft) S-SW 192 ° 0 min 0,000 mm 0,0 UV-I 0 W/m² 0,9 °C 2,8 °C 3,2 km/h (1 Bft)
10.11.2017 05:38 2,8 °C 2,8 °C 87 % 1023,0 hPa 0,0 mm 1,5 km/h (1 Bft) S-SW 192 ° 0 min 0,000 mm 0,0 UV-I 0 W/m² 0,9 °C 2,8 °C 3,2 km/h (1 Bft)
10.11.2017 05:39 2,8 °C 2,8 °C 87 % 1023,0 hPa 0,0 mm 0,0 km/h (0 Bft) S-SW 192 ° 0 min 0,000 mm 0,0 UV-I 0 W/m² 0,9 °C 2,8 °C 0,0 km/h (0 Bft)
10.11.2017 05:40 2,8 °C 2,8 °C 86 % 1023,0 hPa 0,0 mm 0,0 km/h (0 Bft) S-SW 192 ° 0 min 0,000 mm 0,0 UV-I 0 W/m² 0,7 °C 2,8 °C 0,0 km/h (0 Bft)
10.11.2017 05:41 2,8 °C 2,8 °C 86 % 1023,0 hPa 0,0 mm 0,0 km/h (0 Bft) S-SW 192 ° 0 min 0,000 mm 0,0 UV-I 0 W/m² 0,7 °C 2,8 °C 0,0 km/h (0 Bft)
10.11.2017 05:42 2,8 °C 2,8 °C 86 % 1023,0 hPa 0,0 mm 0,1 km/h (0 Bft) S-SW 192 ° 0 min 0,000 mm 0,0 UV-I 0 W/m² 0,7 °C 2,8 °C 1,6 km/h (1 Bft)
10.11.2017 05:43 2,8 °C 2,8 °C 87 % 1023,0 hPa 0,0 mm 1,4 km/h (1 Bft) S-SW 192 ° 0 min 0,000 mm 0,0 UV-I 0 W/m² 0,9 °C 2,8 °C 1,6 km/h (1 Bft)
10.11.2017 05:44 2,8 °C 2,8 °C 87 % 1023,0 hPa 0,0 mm 2,0 km/h (1 Bft) S-SW 192 ° 0 min 0,000 mm 0,0 UV-I 0 W/m² 0,9 °C 2,8 °C 3,2 km/h (1 Bft)
10.11.2017 05:45 2,8 °C 2,8 °C 87 % 1023,1 hPa 0,0 mm 2,5 km/h (1 Bft) S-SW 192 ° 0 min 0,000 mm 0,0 UV-I 0 W/m² 0,9 °C 2,8 °C 3,2 km/h (1 Bft)
10.11.2017 05:46 2,8 °C 2,8 °C 87 % 1023,1 hPa 0,0 mm 2,3 km/h (1 Bft) S-SW 192 ° 0 min 0,000 mm 0,0 UV-I 0 W/m² 0,9 °C 2,8 °C 3,2 km/h (1 Bft)
10.11.2017 05:47 2,8 °C 2,8 °C 87 % 1023,0 hPa 0,0 mm 0,4 km/h (0 Bft) S-SW 192 ° 0 min 0,000 mm 0,0 UV-I 0 W/m² 0,9 °C 2,8 °C 1,6 km/h (1 Bft)
10.11.2017 05:48 2,8 °C 2,8 °C 87 % 1023,0 hPa 0,0 mm 1,3 km/h (1 Bft) S-SW 192 ° 0 min 0,000 mm 0,0 UV-I 0 W/m² 0,9 °C 2,8 °C 4,8 km/h (1 Bft)
10.11.2017 05:49 2,8 °C 2,8 °C 87 % 1023,0 hPa 0,0 mm 2,7 km/h (1 Bft) S-SW 192 ° 0 min 0,000 mm 0,0 UV-I 0 W/m² 0,9 °C 2,8 °C 4,8 km/h (1 Bft)
10.11.2017 05:50 2,8 °C 2,8 °C 87 % 1023,0 hPa 0,0 mm 3,3 km/h (1 Bft) S-SW 192 ° 0 min 0,000 mm 0,0 UV-I 0 W/m² 0,9 °C 2,8 °C 4,8 km/h (1 Bft)
10.11.2017 05:51 2,8 °C 2,8 °C 87 % 1022,9 hPa 0,0 mm 3,6 km/h (1 Bft) S-SW 192 ° 0 min 0,000 mm 0,0 UV-I 0 W/m² 0,9 °C 2,8 °C 4,8 km/h (1 Bft)
10.11.2017 05:52 2,8 °C 2,8 °C 87 % 1022,9 hPa 0,0 mm 3,2 km/h (1 Bft) S-SW 192 ° 0 min 0,000 mm 0,0 UV-I 0 W/m² 0,9 °C 2,8 °C 4,8 km/h (1 Bft)
10.11.2017 05:53 2,8 °C 2,8 °C 87 % 1022,9 hPa 0,0 mm 1,7 km/h (1 Bft) S-SW 192 ° 0 min 0,000 mm 0,0 UV-I 0 W/m² 0,9 °C 2,8 °C 4,8 km/h (1 Bft)
10.11.2017 05:54 2,8 °C 2,8 °C 87 % 1022,8 hPa 0,0 mm 1,8 km/h (1 Bft) S-SW 192 ° 0 min 0,000 mm 0,0 UV-I 0 W/m² 0,9 °C 2,8 °C 3,2 km/h (1 Bft)
10.11.2017 05:55 2,8 °C 2,8 °C 87 % 1022,8 hPa 0,0 mm 0,9 km/h (0 Bft) S-SW 192 ° 0 min 0,000 mm 0,0 UV-I 0 W/m² 0,9 °C 2,8 °C 3,2 km/h (1 Bft)
10.11.2017 05:56 2,8 °C 2,8 °C 87 % 1022,7 hPa 0,0 mm 0,1 km/h (0 Bft) S-SW 192 ° 0 min 0,000 mm 0,0 UV-I 0 W/m² 0,9 °C 2,8 °C 1,6 km/h (1 Bft)
10.11.2017 05:57 2,8 °C 2,8 °C 87 % 1022,7 hPa 0,0 mm 0,3 km/h (0 Bft) S-SW 192 ° 0 min 0,000 mm 0,0 UV-I 0 W/m² 0,9 °C 2,8 °C 1,6 km/h (1 Bft)
10.11.2017 05:58 2,8 °C 2,8 °C 88 % 1022,6 hPa 0,0 mm 0,1 km/h (0 Bft) S-SW 192 ° 0 min 0,000 mm 0,0 UV-I 0 W/m² 1,0 °C 2,8 °C 1,6 km/h (1 Bft)
10.11.2017 05:59 2,8 °C 2,8 °C 87 % 1022,6 hPa 0,0 mm 0,9 km/h (0 Bft) S-SW 192 ° 0 min 0,000 mm 0,0 UV-I 0 W/m² 0,9 °C 2,8 °C 3,2 km/h (1 Bft)
10.11.2017 06:00 2,8 °C 2,8 °C 88 % 1022,6 hPa 0,0 mm 0,0 km/h (0 Bft) S-SW 192 ° 0 min 0,000 mm 0,0 UV-I 0 W/m² 1,0 °C 2,8 °C 0,0 km/h (0 Bft)
10.11.2017 06:01 2,8 °C 2,8 °C 87 % 1022,6 hPa 0,0 mm 0,0 km/h (0 Bft) S-SW 192 ° 0 min 0,000 mm 0,0 UV-I 0 W/m² 0,9 °C 2,8 °C 0,0 km/h (0 Bft)
10.11.2017 06:02 2,8 °C 2,8 °C 88 % 1022,6 hPa 0,0 mm 0,0 km/h (0 Bft) S-SW 192 ° 0 min 0,000 mm 0,0 UV-I 0 W/m² 1,0 °C 2,8 °C 0,0 km/h (0 Bft)
10.11.2017 06:03 2,8 °C 2,8 °C 88 % 1022,6 hPa 0,0 mm 0,1 km/h (0 Bft) S-SW 192 ° 0 min 0,000 mm 0,0 UV-I 0 W/m² 1,0 °C 2,8 °C 1,6 km/h (1 Bft)
10.11.2017 06:04 2,8 °C 2,8 °C 88 % 1022,6 hPa 0,0 mm 2,7 km/h (1 Bft) S-SW 192 ° 0 min 0,000 mm 0,0 UV-I 0 W/m² 1,0 °C 2,8 °C 4,8 km/h (1 Bft)
10.11.2017 06:05 2,8 °C 2,8 °C 88 % 1022,6 hPa 0,0 mm 2,1 km/h (1 Bft) S-SW 192 ° 0 min 0,000 mm 0,0 UV-I 0 W/m² 1,0 °C 2,8 °C 4,8 km/h (1 Bft)
10.11.2017 06:06 2,8 °C 2,8 °C 87 % 1022,6 hPa 0,0 mm 5,2 km/h (1 Bft) S-SW 205 ° 0 min 0,000 mm 0,0 UV-I 0 W/m² 0,9 °C 1,5 °C 9,7 km/h (2 Bft)
10.11.2017 06:07 2,8 °C 2,8 °C 87 % 1022,6 hPa 0,0 mm 4,2 km/h (1 Bft) S-SW 192 ° 0 min 0,000 mm 0,0 UV-I 0 W/m² 0,9 °C 2,8 °C 9,7 km/h (2 Bft)
10.11.2017 06:08 2,8 °C 2,8 °C 87 % 1022,5 hPa 0,0 mm 2,0 km/h (1 Bft) S-SW 192 ° 0 min 0,000 mm 0,0 UV-I 0 W/m² 0,9 °C 2,8 °C 3,2 km/h (1 Bft)
10.11.2017 06:09 2,8 °C 2,8 °C 87 % 1022,5 hPa 0,0 mm 1,6 km/h (1 Bft) S-SW 192 ° 0 min 0,000 mm 0,0 UV-I 0 W/m² 0,9 °C 2,8 °C 3,2 km/h (1 Bft)
10.11.2017 06:10 2,8 °C 2,8 °C 87 % 1022,4 hPa 0,0 mm 3,8 km/h (1 Bft) S-SW 196 ° 0 min 0,000 mm 0,0 UV-I 0 W/m² 0,9 °C 2,8 °C 8,0 km/h (2 Bft)
10.11.2017 06:11 2,8 °C 2,8 °C 87 % 1022,5 hPa 0,0 mm 1,0 km/h (0 Bft) S-SW 196 ° 0 min 0,000 mm 0,0 UV-I 0 W/m² 0,9 °C 2,8 °C 1,6 km/h (1 Bft)
10.11.2017 06:12 2,8 °C 2,8 °C 87 % 1022,4 hPa 0,0 mm 0,0 km/h (0 Bft) S-SW 196 ° 0 min 0,000 mm 0,0 UV-I 0 W/m² 0,9 °C 2,8 °C 0,0 km/h (0 Bft)
10.11.2017 06:13 2,8 °C 2,8 °C 87 % 1022,4 hPa 0,0 mm 0,0 km/h (0 Bft) S-SW 196 ° 0 min 0,000 mm 0,0 UV-I 0 W/m² 0,9 °C 2,8 °C 0,0 km/h (0 Bft)
10.11.2017 06:14 2,8 °C 2,8 °C 87 % 1022,3 hPa 0,0 mm 0,0 km/h (0 Bft) S-SW 196 ° 0 min 0,000 mm 0,0 UV-I 0 W/m² 0,9 °C 2,8 °C 0,0 km/h (0 Bft)
10.11.2017 06:15 2,8 °C 2,8 °C 87 % 1022,3 hPa 0,0 mm 0,7 km/h (0 Bft) S-SW 196 ° 0 min 0,000 mm 0,0 UV-I 0 W/m² 0,9 °C 2,8 °C 1,6 km/h (1 Bft)
10.11.2017 06:16 2,8 °C 2,8 °C 87 % 1022,2 hPa 0,0 mm 1,2 km/h (1 Bft) S-SW 196 ° 0 min 0,000 mm 0,0 UV-I 0 W/m² 0,9 °C 2,8 °C 3,2 km/h (1 Bft)
10.11.2017 06:17 2,8 °C 2,8 °C 87 % 1022,2 hPa 0,0 mm 2,1 km/h (1 Bft) S-SW 196 ° 0 min 0,000 mm 0,0 UV-I 0 W/m² 0,9 °C 2,8 °C 4,8 km/h (1 Bft)
10.11.2017 06:18 2,8 °C 2,8 °C 87 % 1022,2 hPa 0,0 mm 2,0 km/h (1 Bft) S-SW 196 ° 0 min 0,000 mm 0,0 UV-I 0 W/m² 0,9 °C 2,8 °C 3,2 km/h (1 Bft)
10.11.2017 06:19 2,8 °C 2,8 °C 87 % 1022,2 hPa 0,0 mm 0,2 km/h (0 Bft) S-SW 196 ° 0 min 0,000 mm 0,0 UV-I 0 W/m² 0,9 °C 2,8 °C 1,6 km/h (1 Bft)
10.11.2017 06:20 2,8 °C 2,8 °C 87 % 1022,3 hPa 0,0 mm 0,0 km/h (0 Bft) S-SW 196 ° 0 min 0,000 mm 0,0 UV-I 0 W/m² 0,9 °C 2,8 °C 0,0 km/h (0 Bft)
10.11.2017 06:21 2,8 °C 2,8 °C 87 % 1022,2 hPa 0,0 mm 0,0 km/h (0 Bft) S-SW 196 ° 0 min 0,000 mm 0,0 UV-I 0 W/m² 0,9 °C 2,8 °C 0,0 km/h (0 Bft)
10.11.2017 06:22 2,8 °C 2,8 °C 87 % 1022,2 hPa 0,0 mm 0,8 km/h (0 Bft) S-SW 196 ° 0 min 0,000 mm 0,0 UV-I 0 W/m² 0,9 °C 2,8 °C 3,2 km/h (1 Bft)
10.11.2017 06:23 2,8 °C 2,8 °C 87 % 1022,2 hPa 0,0 mm 0,0 km/h (0 Bft) S-SW 196 ° 0 min 0,000 mm 0,0 UV-I 0 W/m² 0,9 °C 2,8 °C 0,0 km/h (0 Bft)
10.11.2017 06:24 2,8 °C 2,8 °C 88 % 1022,2 hPa 0,0 mm 0,4 km/h (0 Bft) S-SW 196 ° 0 min 0,000 mm 0,0 UV-I 0 W/m² 1,0 °C 2,8 °C 1,6 km/h (1 Bft)
10.11.2017 06:25 2,8 °C 2,8 °C 88 % 1022,2 hPa 0,0 mm 0,0 km/h (0 Bft) S-SW 196 ° 0 min 0,000 mm 0,0 UV-I 0 W/m² 1,0 °C 2,8 °C 0,0 km/h (0 Bft)
10.11.2017 06:26 2,8 °C 2,8 °C 88 % 1022,1 hPa 0,0 mm 0,0 km/h (0 Bft) S-SW 196 ° 0 min 0,000 mm 0,0 UV-I 0 W/m² 1,0 °C 2,8 °C 0,0 km/h (0 Bft)
10.11.2017 06:27 2,8 °C 2,8 °C 88 % 1022,2 hPa 0,0 mm 0,0 km/h (0 Bft) S-SW 196 ° 0 min 0,000 mm 0,0 UV-I 0 W/m² 1,0 °C 2,8 °C 0,0 km/h (0 Bft)
10.11.2017 06:28 2,8 °C 2,8 °C 88 % 1022,2 hPa 0,0 mm 0,0 km/h (0 Bft) S-SW 196 ° 0 min 0,000 mm 0,0 UV-I 0 W/m² 1,0 °C 2,8 °C 0,0 km/h (0 Bft)
10.11.2017 06:29 2,8 °C 2,8 °C 88 % 1022,2 hPa 0,0 mm 0,0 km/h (0 Bft) S-SW 196 ° 0 min 0,000 mm 0,0 UV-I 0 W/m² 1,0 °C 2,8 °C 0,0 km/h (0 Bft)
10.11.2017 06:30 2,8 °C 2,8 °C 88 % 1022,2 hPa 0,0 mm 0,1 km/h (0 Bft) S-SW 196 ° 0 min 0,000 mm 0,0 UV-I 0 W/m² 1,0 °C 2,8 °C 1,6 km/h (1 Bft)
10.11.2017 06:31 2,8 °C 2,8 °C 88 % 1022,2 hPa 0,0 mm 1,9 km/h (1 Bft) S-SW 196 ° 0 min 0,000 mm 0,0 UV-I 0 W/m² 1,0 °C 2,8 °C 4,8 km/h (1 Bft)
10.11.2017 06:32 2,8 °C 2,8 °C 88 % 1022,2 hPa 0,0 mm 2,9 km/h (1 Bft) S-SW 197 ° 0 min 0,000 mm 0,0 UV-I 0 W/m² 1,0 °C 2,8 °C 4,8 km/h (1 Bft)
10.11.2017 06:33 2,8 °C 2,8 °C 88 % 1022,1 hPa 0,0 mm 0,6 km/h (0 Bft) S-SW 197 ° 0 min 0,000 mm 0,0 UV-I 0 W/m² 1,0 °C 2,8 °C 3,2 km/h (1 Bft)
10.11.2017 06:34 2,8 °C 2,8 °C 88 % 1022,2 hPa 0,0 mm 0,9 km/h (0 Bft) S-SW 197 ° 0 min 0,000 mm 0,0 UV-I 0 W/m² 1,0 °C 2,8 °C 3,2 km/h (1 Bft)
10.11.2017 06:35 2,8 °C 2,8 °C 88 % 1022,2 hPa 0,0 mm 1,2 km/h (1 Bft) S-SW 197 ° 0 min 0,000 mm 0,0 UV-I 0 W/m² 1,0 °C 2,8 °C 3,2 km/h (1 Bft)
10.11.2017 06:36 2,8 °C 2,8 °C 88 % 1022,2 hPa 0,0 mm 4,2 km/h (1 Bft) S-SO 153 ° 0 min 0,000 mm 0,0 UV-I 0 W/m² 1,0 °C 2,8 °C 4,8 km/h (1 Bft)
10.11.2017 06:37 2,8 °C 2,8 °C 88 % 1022,2 hPa 0,0 mm 1,2 km/h (1 Bft) S-SO 153 ° 0 min 0,000 mm 0,0 UV-I 0 W/m² 1,0 °C 2,8 °C 3,2 km/h (1 Bft)
10.11.2017 06:38 2,8 °C 2,8 °C 88 % 1022,2 hPa 0,0 mm 2,1 km/h (1 Bft) W 268 ° 0 min 0,000 mm 0,0 UV-I 0 W/m² 1,0 °C 2,8 °C 4,8 km/h (1 Bft)
10.11.2017 06:39 2,8 °C 2,8 °C 88 % 1022,2 hPa 0,0 mm 4,9 km/h (1 Bft) W-SW 252 ° 0 min 0,000 mm 0,0 UV-I 0 W/m² 1,0 °C 1,6 °C 8,0 km/h (2 Bft)
10.11.2017 06:40 2,8 °C 2,8 °C 88 % 1022,2 hPa 0,0 mm 2,1 km/h (1 Bft) W-SW 252 ° 0 min 0,000 mm 0,0 UV-I 0 W/m² 1,0 °C 2,8 °C 3,2 km/h (1 Bft)
10.11.2017 06:41 2,8 °C 2,8 °C 88 % 1022,2 hPa 0,0 mm 2,0 km/h (1 Bft) W-SW 252 ° 0 min 0,000 mm 0,0 UV-I 0 W/m² 1,0 °C 2,8 °C 3,2 km/h (1 Bft)
10.11.2017 06:42 2,8 °C 2,8 °C 88 % 1022,2 hPa 0,0 mm 0,1 km/h (0 Bft) W-SW 252 ° 0 min 0,000 mm 0,0 UV-I 0 W/m² 1,0 °C 2,8 °C 1,6 km/h (1 Bft)
10.11.2017 06:43 2,8 °C 2,8 °C 88 % 1022,2 hPa 0,0 mm 2,5 km/h (1 Bft) W-SW 252 ° 0 min 0,000 mm 0,0 UV-I 0 W/m² 1,0 °C 2,8 °C 4,8 km/h (1 Bft)
10.11.2017 06:44 2,8 °C 2,8 °C 88 % 1022,2 hPa 0,0 mm 4,0 km/h (1 Bft) W-SW 252 ° 0 min 0,000 mm 0,0 UV-I 0 W/m² 1,0 °C 2,8 °C 6,4 km/h (2 Bft)
10.11.2017 06:45 2,8 °C 2,8 °C 87 % 1022,2 hPa 0,0 mm 2,7 km/h (1 Bft) S-SW 211 ° 0 min 0,000 mm 0,0 UV-I 0 W/m² 0,9 °C 2,8 °C 4,8 km/h (1 Bft)
10.11.2017 06:46 2,8 °C 2,8 °C 87 % 1022,3 hPa 0,0 mm 2,0 km/h (1 Bft) S-SW 211 ° 0 min 0,000 mm 0,0 UV-I 0 W/m² 0,9 °C 2,8 °C 3,2 km/h (1 Bft)
10.11.2017 06:47 2,8 °C 2,8 °C 87 % 1022,3 hPa 0,0 mm 3,2 km/h (1 Bft) S-SW 211 ° 0 min 0,000 mm 0,0 UV-I 0 W/m² 0,9 °C 2,8 °C 4,8 km/h (1 Bft)
10.11.2017 06:48 2,8 °C 2,8 °C 87 % 1022,3 hPa 0,0 mm 3,1 km/h (1 Bft) SW 219 ° 0 min 0,000 mm 0,0 UV-I 0 W/m² 0,9 °C 2,8 °C 6,4 km/h (2 Bft)
10.11.2017 06:49 2,8 °C 2,8 °C 87 % 1022,4 hPa 0,0 mm 3,5 km/h (1 Bft) S-SW 206 ° 0 min 0,000 mm 0,0 UV-I 0 W/m² 0,9 °C 2,8 °C 4,8 km/h (1 Bft)
10.11.2017 06:50 2,8 °C 2,8 °C 87 % 1022,4 hPa 0,0 mm 2,5 km/h (1 Bft) S 180 ° 0 min 0,000 mm 0,0 UV-I 0 W/m² 0,9 °C 2,8 °C 4,8 km/h (1 Bft)
10.11.2017 06:51 2,8 °C 2,8 °C 87 % 1022,4 hPa 0,0 mm 0,6 km/h (0 Bft) S 180 ° 0 min 0,000 mm 0,0 UV-I 0 W/m² 0,9 °C 2,8 °C 1,6 km/h (1 Bft)
10.11.2017 06:52 2,8 °C 2,8 °C 87 % 1022,4 hPa 0,0 mm 3,9 km/h (1 Bft) SW 214 ° 0 min 0,000 mm 0,0 UV-I 0 W/m² 0,9 °C 2,8 °C 6,4 km/h (2 Bft)
10.11.2017 06:53 2,8 °C 2,8 °C 87 % 1022,4 hPa 0,0 mm 4,6 km/h (1 Bft) SW 222 ° 0 min 0,000 mm 0,0 UV-I 0 W/m² 0,9 °C 1,8 °C 6,4 km/h (2 Bft)
10.11.2017 06:54 2,8 °C 2,8 °C 87 % 1022,4 hPa 0,0 mm 2,3 km/h (1 Bft) SW 222 ° 0 min 0,000 mm 0,0 UV-I 0 W/m² 0,9 °C 2,8 °C 3,2 km/h (1 Bft)
10.11.2017 06:55 2,8 °C 2,8 °C 87 % 1022,4 hPa 0,0 mm 3,9 km/h (1 Bft) S-SW 206 ° 0 min 0,000 mm 0,0 UV-I 0 W/m² 0,9 °C 2,8 °C 6,4 km/h (2 Bft)
10.11.2017 06:56 2,8 °C 2,8 °C 87 % 1022,5 hPa 0,0 mm 3,1 km/h (1 Bft) S-SW 206 ° 0 min 0,000 mm 0,0 UV-I 0 W/m² 0,9 °C 2,8 °C 4,8 km/h (1 Bft)
10.11.2017 06:57 2,8 °C 2,8 °C 87 % 1022,6 hPa 0,0 mm 1,7 km/h (1 Bft) S-SW 206 ° 0 min 0,000 mm 0,0 UV-I 0 W/m² 0,9 °C 2,8 °C 3,2 km/h (1 Bft)
10.11.2017 06:58 2,8 °C 2,8 °C 87 % 1022,6 hPa 0,0 mm 0,5 km/h (0 Bft) S-SW 206 ° 0 min 0,000 mm 0,0 UV-I 0 W/m² 0,9 °C 2,8 °C 1,6 km/h (1 Bft)
10.11.2017 06:59 2,8 °C 2,8 °C 87 % 1022,7 hPa 0,0 mm 0,6 km/h (0 Bft) S-SW 206 ° 0 min 0,000 mm 0,0 UV-I 0 W/m² 0,9 °C 2,8 °C 4,8 km/h (1 Bft)
10.11.2017 07:00 2,8 °C 2,8 °C 87 % 1022,7 hPa 0,0 mm 4,1 km/h (1 Bft) S-SW 206 ° 0 min 0,000 mm 0,0 UV-I 0 W/m² 0,9 °C 2,8 °C 4,8 km/h (1 Bft)
10.11.2017 07:01 2,9 °C 2,9 °C 87 % 1022,7 hPa 0,0 mm 5,5 km/h (1 Bft) S-SW 203 ° 0 min 0,000 mm 0,0 UV-I 0 W/m² 1,0 °C 1,5 °C 6,4 km/h (2 Bft)
10.11.2017 07:02 2,9 °C 2,9 °C 86 % 1022,7 hPa 0,0 mm 4,8 km/h (1 Bft) S-SW 213 ° 0 min 0,000 mm 0,0 UV-I 0 W/m² 0,8 °C 1,8 °C 8,0 km/h (2 Bft)
10.11.2017 07:03 2,9 °C 2,9 °C 86 % 1022,7 hPa 0,0 mm 1,7 km/h (1 Bft) S-SW 213 ° 0 min 0,000 mm 0,0 UV-I 0 W/m² 0,8 °C 2,9 °C 3,2 km/h (1 Bft)
10.11.2017 07:04 2,8 °C 2,9 °C 86 % 1022,8 hPa 0,0 mm 1,4 km/h (1 Bft) S-SW 213 ° 0 min 0,000 mm 0,0 UV-I 0 W/m² 0,7 °C 2,8 °C 3,2 km/h (1 Bft)
10.11.2017 07:05 2,9 °C 2,9 °C 86 % 1022,7 hPa 0,0 mm 0,1 km/h (0 Bft) S-SW 213 ° 0 min 0,000 mm 0,0 UV-I 0 W/m² 0,8 °C 2,9 °C 1,6 km/h (1 Bft)
10.11.2017 07:06 2,9 °C 2,9 °C 87 % 1022,7 hPa 0,0 mm 1,0 km/h (0 Bft) S-SW 213 ° 0 min 0,000 mm 0,0 UV-I 0 W/m² 1,0 °C 2,9 °C 1,6 km/h (1 Bft)
10.11.2017 07:07 2,9 °C 2,9 °C 87 % 1022,8 hPa 0,0 mm 1,8 km/h (1 Bft) S-SW 213 ° 0 min 0,000 mm 0,0 UV-I 0 W/m² 1,0 °C 2,9 °C 3,2 km/h (1 Bft)
10.11.2017 07:08 2,9 °C 2,9 °C 87 % 1022,8 hPa 0,0 mm 2,4 km/h (1 Bft) SW 224 ° 0 min 0,000 mm 0,0 UV-I 0 W/m² 1,0 °C 2,9 °C 4,8 km/h (1 Bft)
10.11.2017 07:09 2,9 °C 2,9 °C 87 % 1022,8 hPa 0,0 mm 2,1 km/h (1 Bft) SW 225 ° 0 min 0,000 mm 0,0 UV-I 0 W/m² 1,0 °C 2,9 °C 3,2 km/h (1 Bft)
10.11.2017 07:10 2,9 °C 2,9 °C 87 % 1022,7 hPa 0,0 mm 1,7 km/h (1 Bft) SW 225 ° 0 min 0,000 mm 0,0 UV-I 0 W/m² 1,0 °C 2,9 °C 3,2 km/h (1 Bft)
10.11.2017 07:11 2,9 °C 2,9 °C 87 % 1022,8 hPa 0,0 mm 1,2 km/h (1 Bft) SW 225 ° 0 min 0,000 mm 0,0 UV-I 0 W/m² 1,0 °C 2,9 °C 3,2 km/h (1 Bft)
10.11.2017 07:12 2,9 °C 2,9 °C 87 % 1022,8 hPa 0,0 mm 1,3 km/h (1 Bft) SW 225 ° 0 min 0,000 mm 0,0 UV-I 0 W/m² 1,0 °C 2,9 °C 3,2 km/h (1 Bft)
10.11.2017 07:13 2,9 °C 2,9 °C 87 % 1022,8 hPa 0,0 mm 2,0 km/h (1 Bft) S-SW 196 ° 0 min 0,000 mm 0,0 UV-I 0 W/m² 1,0 °C 2,9 °C 6,4 km/h (2 Bft)
10.11.2017 07:14 2,9 °C 2,9 °C 87 % 1022,8 hPa 0,0 mm 5,0 km/h (1 Bft) W-SW 250 ° 0 min 0,000 mm 0,0 UV-I 0 W/m² 1,0 °C 1,7 °C 6,4 km/h (2 Bft)
10.11.2017 07:15 2,9 °C 2,9 °C 87 % 1022,8 hPa 0,0 mm 2,8 km/h (1 Bft) W-SW 252 ° 0 min 0,000 mm 0,0 UV-I 0 W/m² 1,0 °C 2,9 °C 4,8 km/h (1 Bft)
10.11.2017 07:16 2,9 °C 2,9 °C 87 % 1022,8 hPa 0,0 mm 2,1 km/h (1 Bft) SW 224 ° 0 min 0,000 mm 0,0 UV-I 0 W/m² 1,0 °C 2,9 °C 6,4 km/h (2 Bft)
10.11.2017 07:17 2,9 °C 2,9 °C 87 % 1022,8 hPa 0,0 mm 3,5 km/h (1 Bft) SW 219 ° 0 min 0,000 mm 0,0 UV-I 0 W/m² 1,0 °C 2,9 °C 6,4 km/h (2 Bft)
10.11.2017 07:18 2,9 °C 2,9 °C 87 % 1022,8 hPa 0,0 mm 3,7 km/h (1 Bft) SW 224 ° 0 min 0,000 mm 0,0 UV-I 0 W/m² 1,0 °C 2,9 °C 6,4 km/h (2 Bft)
10.11.2017 07:19 2,9 °C 2,9 °C 87 % 1022,8 hPa 0,0 mm 3,4 km/h (1 Bft) SW 228 ° 0 min 0,000 mm 0,0 UV-I 0 W/m² 1,0 °C 2,9 °C 4,8 km/h (1 Bft)
10.11.2017 07:20 2,9 °C 2,9 °C 87 % 1022,8 hPa 0,0 mm 3,2 km/h (1 Bft) SW 227 ° 0 min 0,000 mm 0,0 UV-I 0 W/m² 1,0 °C 2,9 °C 6,4 km/h (2 Bft)
10.11.2017 07:21 2,9 °C 3,0 °C 87 % 1022,8 hPa 0,0 mm 2,6 km/h (1 Bft) SW 230 ° 0 min 0,000 mm 0,0 UV-I 0 W/m² 1,0 °C 2,9 °C 4,8 km/h (1 Bft)
10.11.2017 07:22 3,0 °C 3,0 °C 87 % 1022,8 hPa 0,0 mm 2,3 km/h (1 Bft) SW 230 ° 0 min 0,000 mm 0,0 UV-I 0 W/m² 1,1 °C 3,0 °C 4,8 km/h (1 Bft)
10.11.2017 07:23 3,0 °C 3,0 °C 87 % 1022,8 hPa 0,0 mm 3,4 km/h (1 Bft) S-SW 196 ° 0 min 0,000 mm 0,0 UV-I 0 W/m² 1,1 °C 3,0 °C 4,8 km/h (1 Bft)
10.11.2017 07:24 3,0 °C 3,0 °C 87 % 1022,8 hPa 0,0 mm 4,8 km/h (1 Bft) SW 229 ° 0 min 0,000 mm 0,0 UV-I 0 W/m² 1,1 °C 1,9 °C 6,4 km/h (2 Bft)
10.11.2017 07:25 3,0 °C 3,0 °C 87 % 1022,8 hPa 0,0 mm 3,6 km/h (1 Bft) SW 220 ° 0 min 0,000 mm 0,0 UV-I 0 W/m² 1,1 °C 3,0 °C 4,8 km/h (1 Bft)
10.11.2017 07:26 3,0 °C 3,0 °C 87 % 1022,9 hPa 0,0 mm 0,7 km/h (0 Bft) SW 220 ° 0 min 0,000 mm 0,0 UV-I 0 W/m² 1,1 °C 3,0 °C 3,2 km/h (1 Bft)
10.11.2017 07:27 3,1 °C 3,1 °C 87 % 1022,8 hPa 0,0 mm 2,1 km/h (1 Bft) SW 220 ° 0 min 0,000 mm 0,0 UV-I 0 W/m² 1,2 °C 3,1 °C 3,2 km/h (1 Bft)
10.11.2017 07:28 3,0 °C 3,1 °C 87 % 1022,9 hPa 0,0 mm 0,3 km/h (0 Bft) SW 220 ° 0 min 0,000 mm 0,0 UV-I 5 W/m² 1,1 °C 3,0 °C 3,2 km/h (1 Bft)
10.11.2017 07:29 3,1 °C 3,1 °C 87 % 1022,9 hPa 0,0 mm 0,8 km/h (0 Bft) SW 220 ° 0 min 0,000 mm 0,0 UV-I 5 W/m² 1,2 °C 3,1 °C 3,2 km/h (1 Bft)
10.11.2017 07:30 3,1 °C 3,1 °C 87 % 1022,9 hPa 0,0 mm 1,9 km/h (1 Bft) SW 220 ° 0 min 0,000 mm 0,0 UV-I 5 W/m² 1,2 °C 3,1 °C 3,2 km/h (1 Bft)
10.11.2017 07:31 3,1 °C 3,1 °C 87 % 1022,9 hPa 0,0 mm 3,0 km/h (1 Bft) W-SW 254 ° 0 min 0,000 mm 0,0 UV-I 7 W/m² 1,2 °C 3,1 °C 4,8 km/h (1 Bft)
10.11.2017 07:32 3,1 °C 3,1 °C 87 % 1022,9 hPa 0,0 mm 4,3 km/h (1 Bft) W 265 ° 0 min 0,000 mm 0,0 UV-I 7 W/m² 1,2 °C 3,1 °C 6,4 km/h (2 Bft)
10.11.2017 07:33 3,1 °C 3,1 °C 87 % 1022,8 hPa 0,0 mm 3,0 km/h (1 Bft) W-SW 256 ° 0 min 0,000 mm 0,0 UV-I 7 W/m² 1,2 °C 3,1 °C 4,8 km/h (1 Bft)
10.11.2017 07:34 3,1 °C 3,1 °C 87 % 1022,8 hPa 0,0 mm 0,7 km/h (0 Bft) W-SW 256 ° 0 min 0,000 mm 0,0 UV-I 7 W/m² 1,2 °C 3,1 °C 3,2 km/h (1 Bft)
10.11.2017 07:35 3,1 °C 3,1 °C 87 % 1022,7 hPa 0,0 mm 2,4 km/h (1 Bft) W 263 ° 0 min 0,000 mm 0,0 UV-I 7 W/m² 1,2 °C 3,1 °C 4,8 km/h (1 Bft)
10.11.2017 07:36 3,1 °C 3,2 °C 87 % 1022,8 hPa 0,0 mm 1,0 km/h (0 Bft) W 264 ° 0 min 0,000 mm 0,0 UV-I 9 W/m² 1,2 °C 3,1 °C 3,2 km/h (1 Bft)
10.11.2017 07:37 3,1 °C 3,1 °C 87 % 1022,7 hPa 0,0 mm 3,9 km/h (1 Bft) S-SW 205 ° 0 min 0,000 mm 0,0 UV-I 9 W/m² 1,2 °C 3,1 °C 6,4 km/h (2 Bft)
10.11.2017 07:38 3,1 °C 3,2 °C 87 % 1022,7 hPa 0,0 mm 1,5 km/h (1 Bft) S-SW 205 ° 0 min 0,000 mm 0,0 UV-I 11 W/m² 1,2 °C 3,1 °C 3,2 km/h (1 Bft)
10.11.2017 07:39 3,2 °C 3,2 °C 87 % 1022,6 hPa 0,0 mm 3,6 km/h (1 Bft) S-SW 200 ° 0 min 0,000 mm 0,0 UV-I 11 W/m² 1,2 °C 3,2 °C 8,0 km/h (2 Bft)
10.11.2017 07:40 3,2 °C 3,2 °C 87 % 1022,7 hPa 0,0 mm 2,7 km/h (1 Bft) S-SW 200 ° 0 min 0,000 mm 0,0 UV-I 11 W/m² 1,2 °C 3,2 °C 6,4 km/h (2 Bft)
10.11.2017 07:41 3,2 °C 3,2 °C 87 % 1022,7 hPa 0,0 mm 0,9 km/h (0 Bft) S-SW 200 ° 0 min 0,000 mm 0,0 UV-I 12 W/m² 1,2 °C 3,2 °C 1,6 km/h (1 Bft)
10.11.2017 07:42 3,2 °C 3,2 °C 87 % 1022,7 hPa 0,0 mm 3,5 km/h (1 Bft) S 190 ° 0 min 0,000 mm 0,0 UV-I 12 W/m² 1,2 °C 3,2 °C 8,0 km/h (2 Bft)
10.11.2017 07:43 3,2 °C 3,2 °C 87 % 1022,7 hPa 0,0 mm 2,9 km/h (1 Bft) S 190 ° 0 min 0,000 mm 0,0 UV-I 12 W/m² 1,2 °C 3,2 °C 4,8 km/h (1 Bft)
10.11.2017 07:44 3,2 °C 3,2 °C 87 % 1022,7 hPa 0,0 mm 3,1 km/h (1 Bft) S 190 ° 0 min 0,000 mm 0,0 UV-I 12 W/m² 1,2 °C 3,2 °C 4,8 km/h (1 Bft)
10.11.2017 07:45 3,2 °C 3,2 °C 87 % 1022,7 hPa 0,0 mm 0,4 km/h (0 Bft) S 190 ° 0 min 0,000 mm 0,0 UV-I 14 W/m² 1,2 °C 3,2 °C 1,6 km/h (1 Bft)
10.11.2017 07:46 3,2 °C 3,2 °C 87 % 1022,8 hPa 0,0 mm 7,1 km/h (2 Bft) S-SW 202 ° 0 min 0,000 mm 0,0 UV-I 14 W/m² 1,2 °C 1,3 °C 11,3 km/h (2 Bft)
10.11.2017 07:47 3,2 °C 3,2 °C 87 % 1022,8 hPa 0,0 mm 3,8 km/h (1 Bft) S-SW 209 ° 0 min 0,000 mm 0,0 UV-I 14 W/m² 1,2 °C 3,2 °C 6,4 km/h (2 Bft)
10.11.2017 07:48 3,2 °C 3,2 °C 87 % 1022,8 hPa 0,0 mm 1,8 km/h (1 Bft) S 189 ° 0 min 0,000 mm 0,0 UV-I 14 W/m² 1,2 °C 3,2 °C 8,0 km/h (2 Bft)
10.11.2017 07:49 3,2 °C 3,2 °C 87 % 1022,8 hPa 0,0 mm 5,5 km/h (1 Bft) SW 226 ° 0 min 0,000 mm 0,0 UV-I 16 W/m² 1,2 °C 1,8 °C 8,0 km/h (2 Bft)
10.11.2017 07:50 3,2 °C 3,2 °C 87 % 1022,8 hPa 0,0 mm 4,8 km/h (1 Bft) W 266 ° 0 min 0,000 mm 0,0 UV-I 18 W/m² 1,2 °C 2,1 °C 9,7 km/h (2 Bft)
10.11.2017 07:51 3,2 °C 3,2 °C 87 % 1022,9 hPa 0,0 mm 3,9 km/h (1 Bft) SW 226 ° 0 min 0,000 mm 0,0 UV-I 19 W/m² 1,2 °C 3,2 °C 6,4 km/h (2 Bft)
10.11.2017 07:52 3,2 °C 3,2 °C 87 % 1022,9 hPa 0,0 mm 3,1 km/h (1 Bft) SW 235 ° 0 min 0,000 mm 0,0 UV-I 19 W/m² 1,2 °C 3,2 °C 6,4 km/h (2 Bft)
10.11.2017 07:53 3,2 °C 3,2 °C 87 % 1022,9 hPa 0,0 mm 0,1 km/h (0 Bft) SW 235 ° 0 min 0,000 mm 0,0 UV-I 19 W/m² 1,2 °C 3,2 °C 1,6 km/h (1 Bft)
10.11.2017 07:54 3,2 °C 3,2 °C 87 % 1023,0 hPa 0,0 mm 1,7 km/h (1 Bft) W-SW 245 ° 0 min 0,000 mm 0,0 UV-I 19 W/m² 1,2 °C 3,2 °C 4,8 km/h (1 Bft)
10.11.2017 07:55 3,2 °C 3,3 °C 87 % 1023,0 hPa 0,0 mm 0,1 km/h (0 Bft) W-SW 245 ° 0 min 0,000 mm 0,0 UV-I 19 W/m² 1,2 °C 3,2 °C 1,6 km/h (1 Bft)
10.11.2017 07:56 3,2 °C 3,3 °C 87 % 1023,0 hPa 0,0 mm 2,5 km/h (1 Bft) SW 236 ° 0 min 0,000 mm 0,0 UV-I 19 W/m² 1,2 °C 3,2 °C 4,8 km/h (1 Bft)
10.11.2017 07:57 3,2 °C 3,3 °C 88 % 1023,1 hPa 0,0 mm 4,4 km/h (1 Bft) W-SW 252 ° 0 min 0,000 mm 0,0 UV-I 19 W/m² 1,4 °C 3,2 °C 4,8 km/h (1 Bft)
10.11.2017 07:58 3,3 °C 3,3 °C 88 % 1023,1 hPa 0,0 mm 3,5 km/h (1 Bft) W-SW 252 ° 0 min 0,000 mm 0,0 UV-I 19 W/m² 1,5 °C 3,3 °C 6,4 km/h (2 Bft)
10.11.2017 07:59 3,3 °C 3,3 °C 88 % 1023,1 hPa 0,0 mm 2,2 km/h (1 Bft) W-SW 252 ° 0 min 0,000 mm 0,0 UV-I 19 W/m² 1,5 °C 3,3 °C 3,2 km/h (1 Bft)
10.11.2017 08:00 3,2 °C 3,3 °C 88 % 1023,1 hPa 0,0 mm 2,4 km/h (1 Bft) W-SW 252 ° 0 min 0,000 mm 0,0 UV-I 19 W/m² 1,4 °C 3,2 °C 3,2 km/h (1 Bft)
10.11.2017 08:01 3,3 °C 3,3 °C 88 % 1023,1 hPa 0,0 mm 2,4 km/h (1 Bft) W-SW 240 ° 0 min 0,000 mm 0,0 UV-I 21 W/m² 1,5 °C 3,3 °C 3,2 km/h (1 Bft)
10.11.2017 08:02 3,3 °C 3,3 °C 88 % 1023,1 hPa 0,0 mm 3,2 km/h (1 Bft) W-SW 240 ° 0 min 0,000 mm 0,0 UV-I 21 W/m² 1,5 °C 3,3 °C 4,8 km/h (1 Bft)
10.11.2017 08:03 3,3 °C 3,3 °C 88 % 1023,1 hPa 0,0 mm 4,1 km/h (1 Bft) S-SW 202 ° 0 min 0,000 mm 0,0 UV-I 21 W/m² 1,5 °C 3,3 °C 4,8 km/h (1 Bft)
10.11.2017 08:04 3,3 °C 3,3 °C 88 % 1023,0 hPa 0,0 mm 2,2 km/h (1 Bft) S-SW 202 ° 0 min 0,000 mm 0,0 UV-I 23 W/m² 1,5 °C 3,3 °C 4,8 km/h (1 Bft)
10.11.2017 08:05 3,3 °C 3,3 °C 88 % 1023,0 hPa 0,0 mm 2,8 km/h (1 Bft) S-SW 202 ° 0 min 0,000 mm 0,0 UV-I 23 W/m² 1,5 °C 3,3 °C 4,8 km/h (1 Bft)
10.11.2017 08:06 3,3 °C 3,3 °C 88 % 1023,0 hPa 0,0 mm 2,5 km/h (1 Bft) S-SW 202 ° 0 min 0,000 mm 0,0 UV-I 23 W/m² 1,5 °C 3,3 °C 3,2 km/h (1 Bft)
10.11.2017 08:07 3,3 °C 3,3 °C 87 % 1023,1 hPa 0,0 mm 2,8 km/h (1 Bft) S-SW 202 ° 0 min 0,000 mm 0,0 UV-I 25 W/m² 1,3 °C 3,3 °C 4,8 km/h (1 Bft)
10.11.2017 08:08 3,3 °C 3,3 °C 87 % 1023,0 hPa 0,0 mm 4,2 km/h (1 Bft) S-SW 202 ° 0 min 0,000 mm 0,0 UV-I 26 W/m² 1,3 °C 3,3 °C 6,4 km/h (2 Bft)
10.11.2017 08:09 3,3 °C 3,3 °C 87 % 1023,0 hPa 0,0 mm 5,1 km/h (1 Bft) S-SW 193 ° 0 min 0,000 mm 0,0 UV-I 28 W/m² 1,3 °C 2,1 °C 6,4 km/h (2 Bft)
10.11.2017 08:10 3,3 °C 3,3 °C 87 % 1023,0 hPa 0,0 mm 3,8 km/h (1 Bft) S-SW 194 ° 0 min 0,000 mm 0,0 UV-I 28 W/m² 1,3 °C 3,3 °C 4,8 km/h (1 Bft)
10.11.2017 08:11 3,3 °C 3,3 °C 87 % 1022,9 hPa 0,0 mm 2,5 km/h (1 Bft) S-SW 194 ° 0 min 0,000 mm 0,0 UV-I 28 W/m² 1,3 °C 3,3 °C 3,2 km/h (1 Bft)
10.11.2017 08:12 3,3 °C 3,3 °C 87 % 1023,0 hPa 0,0 mm 4,0 km/h (1 Bft) S-SW 194 ° 0 min 0,000 mm 0,0 UV-I 30 W/m² 1,3 °C 3,3 °C 4,8 km/h (1 Bft)
10.11.2017 08:13 3,3 °C 3,3 °C 87 % 1023,0 hPa 0,0 mm 1,7 km/h (1 Bft) S-SW 194 ° 0 min 0,000 mm 0,0 UV-I 30 W/m² 1,3 °C 3,3 °C 3,2 km/h (1 Bft)
10.11.2017 08:14 3,3 °C 3,3 °C 87 % 1023,1 hPa 0,0 mm 1,6 km/h (1 Bft) S-SW 194 ° 0 min 0,000 mm 0,0 UV-I 30 W/m² 1,3 °C 3,3 °C 1,6 km/h (1 Bft)
10.11.2017 08:15 3,3 °C 3,3 °C 87 % 1023,1 hPa 0,0 mm 0,9 km/h (0 Bft) S-SW 194 ° 0 min 0,000 mm 0,0 UV-I 33 W/m² 1,3 °C 3,3 °C 3,2 km/h (1 Bft)
10.11.2017 08:16 3,3 °C 3,3 °C 87 % 1023,0 hPa 0,0 mm 0,1 km/h (0 Bft) S-SW 194 ° 0 min 0,000 mm 0,0 UV-I 32 W/m² 1,3 °C 3,3 °C 1,6 km/h (1 Bft)
10.11.2017 08:17 3,3 °C 3,3 °C 87 % 1023,0 hPa 0,0 mm 0,4 km/h (0 Bft) S-SW 194 ° 0 min 0,000 mm 0,0 UV-I 30 W/m² 1,3 °C 3,3 °C 3,2 km/h (1 Bft)
10.11.2017 08:18 3,3 °C 3,3 °C 87 % 1023,1 hPa 0,0 mm 1,5 km/h (1 Bft) S-SW 194 ° 0 min 0,000 mm 0,0 UV-I 28 W/m² 1,3 °C 3,3 °C 3,2 km/h (1 Bft)
10.11.2017 08:19 3,3 °C 3,3 °C 87 % 1023,1 hPa 0,0 mm 1,1 km/h (1 Bft) S-SW 194 ° 0 min 0,000 mm 0,0 UV-I 28 W/m² 1,3 °C 3,3 °C 3,2 km/h (1 Bft)
10.11.2017 08:20 3,3 °C 3,3 °C 87 % 1023,0 hPa 0,0 mm 3,2 km/h (1 Bft) S-SW 194 ° 0 min 0,000 mm 0,0 UV-I 28 W/m² 1,3 °C 3,3 °C 4,8 km/h (1 Bft)
10.11.2017 08:21 3,3 °C 3,3 °C 87 % 1023,1 hPa 0,0 mm 1,2 km/h (1 Bft) S-SW 194 ° 0 min 0,000 mm 0,0 UV-I 28 W/m² 1,3 °C 3,3 °C 3,2 km/h (1 Bft)
10.11.2017 08:22 3,3 °C 3,4 °C 87 % 1023,0 hPa 0,0 mm 1,3 km/h (1 Bft) S-SW 194 ° 0 min 0,000 mm 0,0 UV-I 28 W/m² 1,3 °C 3,3 °C 3,2 km/h (1 Bft)
10.11.2017 08:23 3,3 °C 3,4 °C 87 % 1023,0 hPa 0,0 mm 1,3 km/h (1 Bft) S-SW 194 ° 0 min 0,000 mm 0,0 UV-I 28 W/m² 1,3 °C 3,3 °C 3,2 km/h (1 Bft)
10.11.2017 08:24 3,3 °C 3,4 °C 87 % 1023,0 hPa 0,0 mm 1,9 km/h (1 Bft) S-SW 194 ° 0 min 0,000 mm 0,0 UV-I 28 W/m² 1,3 °C 3,3 °C 4,8 km/h (1 Bft)
10.11.2017 08:25 3,3 °C 3,3 °C 87 % 1022,9 hPa 0,0 mm 0,0 km/h (0 Bft) S-SW 194 ° 0 min 0,000 mm 0,0 UV-I 30 W/m² 1,3 °C 3,3 °C 0,0 km/h (0 Bft)
10.11.2017 08:26 3,3 °C 3,4 °C 87 % 1022,9 hPa 0,0 mm 1,5 km/h (1 Bft) S-SW 194 ° 0 min 0,000 mm 0,0 UV-I 30 W/m² 1,3 °C 3,3 °C 3,2 km/h (1 Bft)
10.11.2017 08:27 3,4 °C 3,4 °C 87 % 1022,9 hPa 0,0 mm 0,8 km/h (0 Bft) S-SW 194 ° 0 min 0,000 mm 0,0 UV-I 28 W/m² 1,4 °C 3,4 °C 1,6 km/h (1 Bft)
10.11.2017 08:28 3,4 °C 3,4 °C 87 % 1022,9 hPa 0,0 mm 0,7 km/h (0 Bft) S-SW 194 ° 0 min 0,000 mm 0,0 UV-I 26 W/m² 1,4 °C 3,4 °C 1,6 km/h (1 Bft)
10.11.2017 08:29 3,4 °C 3,4 °C 87 % 1022,9 hPa 0,0 mm 2,5 km/h (1 Bft) S-SW 194 ° 0 min 0,000 mm 0,0 UV-I 26 W/m² 1,4 °C 3,4 °C 4,8 km/h (1 Bft)
10.11.2017 08:30 3,4 °C 3,4 °C 87 % 1023,0 hPa 0,0 mm 0,2 km/h (0 Bft) S-SW 194 ° 0 min 0,000 mm 0,0 UV-I 25 W/m² 1,4 °C 3,4 °C 1,6 km/h (1 Bft)
10.11.2017 08:31 3,4 °C 3,4 °C 87 % 1023,0 hPa 0,0 mm 0,8 km/h (0 Bft) S-SW 194 ° 0 min 0,000 mm 0,0 UV-I 25 W/m² 1,4 °C 3,4 °C 3,2 km/h (1 Bft)
10.11.2017 08:32 3,4 °C 3,4 °C 87 % 1023,0 hPa 0,0 mm 4,5 km/h (1 Bft) S-SW 210 ° 0 min 0,000 mm 0,0 UV-I 21 W/m² 1,4 °C 3,4 °C 9,7 km/h (2 Bft)
10.11.2017 08:33 3,4 °C 3,4 °C 87 % 1023,0 hPa 0,0 mm 5,8 km/h (2 Bft) S-SW 196 ° 0 min 0,000 mm 0,0 UV-I 21 W/m² 1,4 °C 2,0 °C 8,0 km/h (2 Bft)
10.11.2017 08:34 3,4 °C 3,4 °C 87 % 1023,0 hPa 0,0 mm 6,3 km/h (2 Bft) S-SW 194 ° 0 min 0,000 mm 0,0 UV-I 21 W/m² 1,4 °C 1,8 °C 9,7 km/h (2 Bft)
10.11.2017 08:35 3,4 °C 3,4 °C 86 % 1023,0 hPa 0,0 mm 3,9 km/h (1 Bft) S-SW 196 ° 0 min 0,000 mm 0,0 UV-I 21 W/m² 1,3 °C 3,4 °C 6,4 km/h (2 Bft)
10.11.2017 08:36 3,4 °C 3,4 °C 86 % 1023,0 hPa 0,0 mm 0,7 km/h (0 Bft) S-SW 196 ° 0 min 0,000 mm 0,0 UV-I 21 W/m² 1,3 °C 3,4 °C 3,2 km/h (1 Bft)
10.11.2017 08:37 3,4 °C 3,4 °C 86 % 1022,9 hPa 0,0 mm 1,4 km/h (1 Bft) W 269 ° 0 min 0,000 mm 0,0 UV-I 23 W/m² 1,3 °C 3,4 °C 6,4 km/h (2 Bft)
10.11.2017 08:38 3,4 °C 3,4 °C 86 % 1023,0 hPa 0,0 mm 8,6 km/h (2 Bft) W-SW 239 ° 0 min 0,000 mm 0,0 UV-I 23 W/m² 1,3 °C 1,1 °C 14,5 km/h (3 Bft)
10.11.2017 08:39 3,4 °C 3,4 °C 86 % 1023,0 hPa 0,0 mm 5,3 km/h (1 Bft) W 263 ° 0 min 0,000 mm 0,0 UV-I 23 W/m² 1,3 °C 2,1 °C 8,0 km/h (2 Bft)
10.11.2017 08:40 3,4 °C 3,5 °C 86 % 1023,0 hPa 0,0 mm 5,8 km/h (2 Bft) W-SW 253 ° 0 min 0,000 mm 0,0 UV-I 21 W/m² 1,3 °C 2,0 °C 6,4 km/h (2 Bft)
10.11.2017 08:41 3,4 °C 3,5 °C 86 % 1023,0 hPa 0,0 mm 3,7 km/h (1 Bft) W-SW 258 ° 0 min 0,000 mm 0,0 UV-I 21 W/m² 1,3 °C 3,4 °C 6,4 km/h (2 Bft)
10.11.2017 08:42 3,5 °C 3,5 °C 86 % 1023,0 hPa 0,0 mm 6,2 km/h (2 Bft) S-SW 192 ° 0 min 0,000 mm 0,0 UV-I 19 W/m² 1,4 °C 1,9 °C 11,3 km/h (2 Bft)
10.11.2017 08:43 3,5 °C 3,5 °C 86 % 1023,0 hPa 0,0 mm 7,7 km/h (2 Bft) SW 233 ° 0 min 0,000 mm 0,0 UV-I 19 W/m² 1,4 °C 1,5 °C 12,9 km/h (3 Bft)
10.11.2017 08:44 3,4 °C 3,5 °C 86 % 1023,0 hPa 0,0 mm 6,5 km/h (2 Bft) SW 232 ° 0 min 0,000 mm 0,0 UV-I 19 W/m² 1,3 °C 1,7 °C 11,3 km/h (2 Bft)
10.11.2017 08:45 3,5 °C 3,5 °C 85 % 1023,0 hPa 0,0 mm 5,1 km/h (1 Bft) W-SW 237 ° 0 min 0,000 mm 0,0 UV-I 19 W/m² 1,2 °C 2,3 °C 9,7 km/h (2 Bft)
10.11.2017 08:46 3,5 °C 3,5 °C 85 % 1022,9 hPa 0,0 mm 4,4 km/h (1 Bft) SW 218 ° 0 min 0,000 mm 0,0 UV-I 21 W/m² 1,2 °C 3,5 °C 6,4 km/h (2 Bft)
10.11.2017 08:47 3,5 °C 3,5 °C 85 % 1023,0 hPa 0,0 mm 5,3 km/h (1 Bft) W-SW 251 ° 0 min 0,000 mm 0,0 UV-I 23 W/m² 1,2 °C 2,3 °C 8,0 km/h (2 Bft)
10.11.2017 08:48 3,5 °C 3,5 °C 85 % 1023,0 hPa 0,0 mm 4,2 km/h (1 Bft) W-SW 252 ° 0 min 0,000 mm 0,0 UV-I 23 W/m² 1,2 °C 3,5 °C 4,8 km/h (1 Bft)
10.11.2017 08:49 3,6 °C 3,6 °C 85 % 1023,0 hPa 0,0 mm 4,4 km/h (1 Bft) W-SW 250 ° 0 min 0,000 mm 0,0 UV-I 23 W/m² 1,3 °C 3,6 °C 6,4 km/h (2 Bft)
10.11.2017 08:50 3,5 °C 3,6 °C 85 % 1023,1 hPa 0,0 mm 3,8 km/h (1 Bft) W-SW 258 ° 0 min 0,000 mm 0,0 UV-I 23 W/m² 1,2 °C 3,5 °C 4,8 km/h (1 Bft)
10.11.2017 08:51 3,5 °C 3,6 °C 85 % 1023,0 hPa 0,0 mm 3,2 km/h (1 Bft) SW 214 ° 0 min 0,000 mm 0,0 UV-I 23 W/m² 1,2 °C 3,5 °C 6,4 km/h (2 Bft)
10.11.2017 08:52 3,6 °C 3,6 °C 85 % 1023,0 hPa 0,0 mm 6,2 km/h (2 Bft) W-SW 241 ° 0 min 0,000 mm 0,0 UV-I 21 W/m² 1,3 °C 2,0 °C 11,3 km/h (2 Bft)
10.11.2017 08:53 3,5 °C 3,6 °C 84 % 1023,0 hPa 0,0 mm 8,5 km/h (2 Bft) W 280 ° 0 min 0,000 mm 0,0 UV-I 21 W/m² 1,1 °C 1,2 °C 12,9 km/h (3 Bft)
10.11.2017 08:54 3,5 °C 3,6 °C 84 % 1023,0 hPa 0,0 mm 6,1 km/h (2 Bft) S-SW 207 ° 0 min 0,000 mm 0,0 UV-I 21 W/m² 1,1 °C 2,0 °C 9,7 km/h (2 Bft)
10.11.2017 08:55 3,6 °C 3,6 °C 84 % 1023,0 hPa 0,0 mm 6,1 km/h (2 Bft) W-SW 256 ° 0 min 0,000 mm 0,0 UV-I 23 W/m² 1,2 °C 2,1 °C 9,7 km/h (2 Bft)
10.11.2017 08:56 3,6 °C 3,6 °C 84 % 1023,0 hPa 0,0 mm 5,0 km/h (1 Bft) W 268 ° 0 min 0,000 mm 0,0 UV-I 23 W/m² 1,2 °C 2,5 °C 6,4 km/h (2 Bft)
10.11.2017 08:57 3,6 °C 3,6 °C 84 % 1023,0 hPa 0,0 mm 3,7 km/h (1 Bft) W 270 ° 0 min 0,000 mm 0,0 UV-I 25 W/m² 1,2 °C <